     2.10           OBSERVATION DATA    G (GPS)             RINEX VERSION / TYPE
teqc 2006Apr13 CORS-ADM Account 20060629 12:04:02UTC        PGM / RUN BY / DATE
Solaris 5.9|UltraSparc IIi|cc -xarch=v9 SC5.5|=+-|*Sparc    COMMENT
teqc 2006Apr13 CORS/NGS/NOAA 20060629 12:04:01UTC           COMMENT
BIT 2 OF LLI FLAGS DATA COLLECTED UNDER A/S CONDITION       COMMENT
cnmr                                                        MARKER NAME
50512M001                                                   MARKER NUMBER
Peter Paul Camacho Commonwealth of the Northern Mariana Isl OBSERVER / AGENCY
0220233361 TRIMBLE 4700 7.29                                REC # / TYPE / VERS
0220238086 TRM33429.20+GP UNAV                              ANT # / TYPE
 -5087756.9960  3465027.2461  1664652.3620                  APPROX POSITION XYZ
        0.0000        0.0000        0.0000                  ANTENNA: DELTA H/E/N
     1     1                                                WAVELENGTH FACT L1/2
     7    C1    L1    L2    P1    P2    D1    D2            # / TYPES OF OBSERV
    30.0000                                                 INTERVAL
SNR is mapped to RINEX snr flag value [0-9]                 COMMENT
L1 & L2: min(max(int(snr_dBHz/6), 0), 9)                    COMMENT
Forced Modulo Decimation to 30 seconds                      COMMENT
  2006     6    29    11     0    0.0000000     GPS         TIME OF FIRST OBS
                                                            END OF HEADER
 06  6 29 11  0  0.0000000  0  9G 7G15G 1G16G25G21G19G23G14
  20517755.5674  -22625511.78548 -17612156.69947                  20517751.9614
     -1148.0864
  21931615.6264  -15975601.77148 -12442955.21246                  21931612.3484
      1621.6414
  21028040.1744  -22768079.92447 -17723375.58746                  21028036.2754
     -1401.5434
  22155162.3034  -11051536.10048 -11422543.39446                  22155156.6484
       534.1364
  20591233.9984  -25055267.33448 -19513747.30147                  20591228.7354
      1539.6634
  22684940.1694  -12976563.01448 -10107451.96945                  22684935.0634
       209.5704
  23586859.6014    -607466.57245  -1658975.82943                  23586854.1324
      3197.0314
  23994101.2644   -2409119.75546  -1860268.77644                  23994095.4294
      2520.2884
  23169270.8334  -13054360.50947 -10166568.50944                  23169266.5794
     -3060.1034
 06  6 29 11  0 30.0000000  0  9G 7G15G 1G16G25G21G19G23G14
  20524340.5054  -22590908.87848 -17585193.40347                  20524336.8054
     -1158.8094
  21922388.6564  -16024092.17547 -12480739.94146                  21922384.3594
      1611.0304
  21036082.0084  -22725820.38947 -17690446.08647                  21036078.3574
     -1415.8014
  22152109.1564  -11067578.99047 -11435044.32746                  22152105.1644
       535.3564
  20582477.9724  -25101280.06248 -19549601.36247                  20582473.2024
      1527.8084
  22683782.4604  -12982648.01148 -10112193.52545                  22683777.3584
       195.9774
  23568634.9494    -703244.37545  -1733607.87943                  23568628.5844
      3188.0234
  23979752.2914   -2484523.73446  -1919025.06944                  23979746.2134
      2506.6604
  23186742.5154  -12962543.66147 -10095022.92044                  23186738.2044
     -3061.0114
 06  6 29 11  1  0.0000000  0  9G 7G15G 1G16G25G21G19G23G14
  20530985.9104  -22555984.66548 -17557979.71347                  20530982.1924
     -1169.6144
  21913222.0714  -16072261.28347 -12518274.30246                  21913218.2984
      1600.1664
  21044204.8514  -22683133.18247 -17657183.32046                  21044201.8314
     -1430.1464
  22149049.0794  -11083659.94247 -11447574.89646                  22149046.0324
       536.6754
  20573790.4934  -25146933.17148 -19585175.20147                  20573787.0004
      1515.6304
  22682702.7984  -12988321.58248 -10116614.47545                  22682698.0044
       182.0954
  23550461.3654    -798747.18645  -1808025.76242                  23550454.4304
      3178.7944
  23965482.5164   -2559515.37546  -1977460.07944                  23965475.3284
      2492.7204
  23204220.0484  -12870698.36047 -10023455.14644                  23204215.6724
     -3062.1144
 06  6 29 11  1 30.0000000  0  9G 7G15G 1G16G25G21G19G23G14
  20537693.2644  -22520738.80748 -17530515.39647                  20537689.5994
     -1180.0204
  21904117.9484  -16120104.24947 -12555554.51646                  21904114.0144
      1589.4634
  21052409.5664  -22640018.17247 -17623587.20046                  21052405.9794
     -1444.1164
  22145982.5314  -11099776.99747 -11460133.64646                  22145979.6634
       538.0664
  20565172.3454  -25192221.82148 -19620465.03847                  20565166.8994
      1503.7404
  22681702.3894  -12993580.26348 -10120712.14545                  22681697.1194
       168.5554
  23532338.4424    -893970.92545  -1882225.99242                  23532334.0794
      3169.8104
  23951291.1974   -2634090.23446  -2035570.30044                  23951284.5494
      2478.9844
  23221703.1944  -12778824.51547  -9951865.14244                  23221699.0554
     -3062.8134
 06  6 29 11  2  0.0000000  0  9G 7G15G 1G16G25G21G19G23G14
  20544460.0774  -22485177.85548 -17502805.54247                  20544456.6674
     -1190.7034
  21895075.3074  -16167622.75647 -12592581.92446                  21895070.8534
      1578.4774
  21060693.6734  -22596482.09147 -17589662.94246                  21060689.9044
     -1458.2324
  22142907.7624  -11115935.12447 -11472724.39646                  22142906.1534
       539.1504
  20556622.8734  -25237148.04548 -19655472.50547                  20556617.7444
      1491.3574
  22680779.9834  -12998427.08248 -10124488.87245                  22680775.0314
       154.5854
  23514273.1464    -988917.64246  -1956210.43543                  23514265.8114
      3160.0204
  23937177.8024   -2708251.00546  -2093357.84844                  23937171.8314
      2465.0634
  23239190.2334  -12686929.45347  -9880258.61244                  23239185.6764
     -3063.5064
 06  6 29 11  2 30.0000000  0  9G 7G15G 1G16G25G21G19G23G14
  20551287.7144  -22449299.42448 -17474848.31347                  20551284.2134
     -1201.2794
  21886095.8224  -16214809.90847 -12629351.11946                  21886091.6684
      1567.3734
  21069058.9044  -22552523.12147 -17555409.18146                  21069055.4804
     -1472.3834
  22139825.8254  -11132130.45047 -11485344.16946                  22139821.5204
       540.4004
  20548143.8514  -25281705.16047 -19690192.33947                  20548139.9514
      1478.9794
  22679936.8014  -13002856.35148 -10127940.24545                  22679931.0824
       140.6254
  23496259.0474   -1083581.11446  -2029974.10743                  23496251.5394
      3150.7134
  23923145.9044   -2781991.68746  -2150818.10144                  23923139.6564
      2450.9524
  23256681.3414  -12595011.62246  -9808634.33944                  23256677.6194
     -3064.2534
 06  6 29 11  2 59.9990000  0  9G 7G15G 1G16G25G21G19G23G14
  20558175.0644  -22413105.21448 -17446645.02047                  20558171.5874
     -1211.5674
  21877180.3734  -16261659.93247 -12665857.62046                  21877176.1524
      1556.2794
  21077504.1364  -22508143.64847 -17520827.74846                  21077500.8144
     -1486.0354
  22136737.1244  -11148361.06847 -11497991.37946                  22136730.4314
       541.9144
  20539736.3244  -25325887.69247 -19724620.24647                  20539732.1494
      1466.7334
  22679173.9384  -13006865.52248 -10131064.27545                  22679169.1644
       126.9294
  23478299.6524   -1177955.24845  -2103512.43643                  23478293.6194
      3141.2304
  23909195.5964   -2855306.29046  -2207946.31744                  23909188.3264
      2437.0564
  23274177.3394  -12503075.14247  -9736995.51644                  23274172.5514
     -3064.8534
 06  6 29 11  3 29.9990000  0  9G 7G15G 1G16G25G21G19G23G14
  20565121.2974  -22376602.10148 -17418201.01647                  20565117.8904
     -1222.1584
  21868328.1274  -16308180.39648 -12702107.31446                  21868323.8654
      1544.9074
  21086028.4844  -22463350.19647 -17485923.75847                  21086024.8454
     -1500.2984
  22133639.6074  -11164635.78947 -11510672.95046                  22133632.9954
       542.9834
  20531398.2664  -25369703.41048 -19758762.33847                  20531394.9854
      1454.0144
  22678490.0794  -13010460.90648 -10133865.85745                  22678484.8264
       112.6904
  23460393.8614   -1272051.49946  -2176834.10143                  23460387.5504
      3131.4894
  23895322.9964   -2928204.89247  -2264750.37244                  23895315.9344
      2422.6514
  23291674.7274  -12411123.51747  -9665344.92544                  23291670.1384
     -3065.5324
 06  6 29 11  3 59.9990000  0  9G 7G15G 1G16G25G21G19G23G14
  20572126.9454  -22339786.70148 -17389513.69047                  20572123.3324
     -1232.3934
  21859540.8014  -16354360.67047 -12738091.94146                  21859536.0464
      1533.6574
  21094631.3584  -22418140.24447 -17450695.21647                  21094627.7744
     -1513.8674
  22130536.0404  -11180948.08848 -11523383.78746                  22130530.1514
       544.3464
  20523132.2044  -25413141.91048 -19792610.51347                  20523127.9374
      1441.5924
  22677886.0924  -13013634.49148 -10136338.75945                  22677879.9734
        98.7064
  23442543.1444   -1365858.29246  -2249930.25043                  23442536.3354
      3122.0564
  23881532.2724   -3000676.91746  -2321222.05444                  23881524.9694
      2408.5304
  23309174.5204  -12319155.95647  -9593681.86944                  23309170.2594
     -3065.8504
 06  6 29 11  4 29.9990000  0  9G 7G15G 1G16G25G21G19G23G14
  20579192.2064  -22302657.36748 -17360581.75047                  20579188.9474
     -1242.9494
  21850818.1444  -16400194.23847 -12773806.38846                  21850813.8654
      1521.8754
  21103314.2664  -22372512.41147 -17415141.07646                  21103310.8484
     -1527.9494
  22127425.1424  -11197294.62248 -11536121.32446                  22127419.3964
       545.3764
  20514939.0584  -25456197.14747 -19826160.06847                  20514934.0744
      1428.6044
  22677363.3364  -13016381.44848 -10138479.24045                  22677357.4944
        84.3074
  23424748.8724   -1459370.12745  -2322796.53043                  23424741.3944
      3112.0754
  23867822.9494   -3072716.84246  -2377356.97544                  23867816.3304
      2393.9214
  23326679.2524  -12227171.51147  -9522005.69944                  23326675.6044
     -3066.5334
 06  6 29 11  4 59.9990000  0  9G 7G15G 1G16G25G21G19G23G14
  20586316.4874  -22265221.10548 -17331410.63747                  20586312.6164
     -1252.7834
  21842162.3094  -16445683.40647 -12809252.48346                  21842157.9114
      1510.8014
  21112074.5354  -22326474.09147 -17379267.07646                  21112071.4314
     -1541.1824
  22124307.0644  -11213680.22847 -11548889.30846                  22124301.7034
       547.0614
  20506818.3344  -25498871.61648 -19859412.91847                  20506813.7804
      1416.2844
  22676921.0964  -13018705.72348 -10140290.35245                  22676915.6664
        70.6354
  23407008.2984   -1552589.67345  -2395435.09043                  23407002.6944
      3102.4954
  23854196.3564   -3144327.81246  -2433157.69444                  23854189.3324
      2380.0734
  23344185.3364  -12135177.71247  -9450322.21944                  23344181.3224
     -3066.3284
 06  6 29 11  5 29.9990000  0  9G 7G15G 1G16G25G21G19G23G14
  20593498.3404  -22227479.03348 -17302001.23047                  20593494.8234
     -1263.1494
  21833572.2444  -16490824.68247 -12844427.49946                  21833567.1964
      1498.8674
  21120913.5434  -22280026.56647 -17343074.21946                  21120910.3734
     -1555.0784
  22121181.6174  -11230104.86648 -11561687.73246                  22121175.9144
       548.1014
  20498771.1424  -25541161.84648 -19892366.34047                  20498765.6734
      1403.2474
  22676559.2454  -13020605.05248 -10141770.32945                  22676554.4394
        56.2064
  23389325.2794   -1645514.26845  -2467843.90043                  23389319.2364
      3092.5494
  23840650.4714   -3215507.05346  -2488622.00544                  23840644.0464
      2365.3134
  23361692.4994  -12043175.97547  -9378632.57644                  23361688.0694
     -3066.9684
 06  6 29 11  5 59.9990000  0  9G 7G15G 1G16G25G21G19G23G14
  20600738.0004  -22189434.25548 -17272355.94547                  20600734.1694
     -1273.0474
  21825048.7334  -16535616.61248 -12879330.28646                  21825043.5414
      1487.3344
  21129829.2424  -22233173.82147 -17306565.61447                  21129826.1304
     -1568.4134
  22118048.8374  -11246569.95248 -11574517.66846                  22118043.4814
       549.6244
  20490796.7344  -25583066.89748 -19925019.62947                  20490791.7964
      1390.5034
  22676278.7184  -13022079.72848 -10142919.41245                  22676273.4704
        42.1244
  23371698.5404   -1738143.47146  -2540022.46743                  23371692.0514
      3082.8524
  23827187.3184   -3286254.13346  -2543749.53544                  23827180.7884
      2351.0654
  23379201.1844  -11951170.30947  -9306939.83644                  23379196.2694
     -3066.8504
 06  6 29 11  6 29.9990000  0  9G 7G15G 1G16G25G21G19G23G14
  20608033.4484  -22151095.24148 -17242481.37847                  20608029.8254
     -1283.1304
  21816590.3884  -16580062.74048 -12913963.61646                  21816585.9144
      1475.4744
  21138820.8674  -22185924.29247 -17269747.81346                  21138816.5724
     -1581.8604
  22114906.5224  -11263082.08148 -11587384.30046                  22114900.7314
       550.8944
  20482894.9614  -25624590.57048 -19957375.72446                  20482889.7644
      1377.4464
  22676078.4044  -13023134.85448 -10143741.57645                  22676072.7084
        27.8964
  23354127.5604   -1830481.80046  -2611974.42543                  23354121.2434
      3072.7594
  23813805.9224   -3356573.45946  -2598543.75944                  23813799.7544
      2336.5244
  23396706.9874  -11859169.29047  -9235250.75544                  23396703.3954
     -3066.8414
 06  6 29 11  6 59.9990000  0  9G 7G15G 1G16G25G21G19G23G14
  20615385.8484  -22112458.47248 -17212374.81647                  20615382.4354
     -1292.7104
  21808200.3284  -16624154.98648 -12948321.18946                  21808195.6734
      1463.8974
  21147888.1374  -22138275.05648 -17232618.55546                  21147884.1854
     -1594.8934
  22111756.0874  -11279636.20448 -11600283.61246                  22111750.7974
       552.6074
  20475067.4214  -25665725.13948 -19989428.65146                  20475062.6864
      1364.8144
  22675958.9474  -13023763.79048 -10144231.65445                  22675953.0854
        13.8824
  23336612.0414   -1922521.68446  -2683693.73043                  23336606.4714
      3063.1594
  23800507.2984   -3426457.78946  -2652999.01844                  23800501.0084
      2322.3054
  23414215.2684  -11767170.23247  -9163563.17244                  23414210.0504
     -3066.4994
 06  6 29 11  7 29.9990000  0  9G 7G15G 1G16G25G21G19G23G14
  20622793.6134  -22073531.26448 -17182041.93147                  20622790.0884
     -1302.5494
  21799876.9784  -16667896.39448 -12982405.38746                  21799871.8994
      1451.9824
  21157029.9534  -22090233.99747 -17195183.96846                  21157025.9754
     -1608.0574
  22108596.6034  -11296237.74048 -11613219.81246                  22108591.6014
       554.0234
  20467313.2344  -25706473.72048 -20021180.78647                  20467309.1254
      1351.6704
  22675918.6524  -13023971.23048 -10144393.28345                  22675913.4984
         -.2834
  23319154.5684   -2014266.71146  -2755183.35643                  23319147.5294
      3053.0614
  23787291.4234   -3495910.94346  -2707118.34244                  23787284.9094
      2307.6374
  23431719.0884  -11675181.25047  -9091883.43044                  23431715.7294
     -3066.2944
 06  6 29 11  7 59.9990000  0  9G 7G15G 1G16G25G21G19G23G14
  20630257.8414  -22034309.12248 -17151479.21247                  20630254.0364
     -1312.1484
  21791621.3324  -16711277.51348 -13016208.83446                  21791617.0314
      1440.2204
  21166246.5274  -22041796.94847 -17157440.80446                  21166243.1944
     -1621.0304
  22105429.9304  -11312880.48048 -11626188.15446                  22105424.5744
       555.6794
  20459633.9814  -25746826.94148 -20052624.85046                  20459629.9574
      1338.6474
  22675960.6534  -13023749.30248 -10144220.34245                  22675955.5134
       -14.4634
  23301754.3364   -2105708.36146  -2826436.64743                  23301747.4194
      3043.1204
  23774158.0274   -3564924.35146  -2760894.96344                  23774152.7644
      2293.2084
  23449223.9554  -11583197.79547  -9020208.00644                  23449219.6494
     -3065.7134
 06  6 29 11  8 29.9990000  0  9G 7G15G 1G16G25G21G19G23G14
  20637777.2244  -21994794.90548 -17120688.89647                  20637772.9994
     -1322.0174
  21783435.1974  -16754296.82448 -13049730.36746                  21783430.4564
      1427.9394
  21175539.1394  -21992967.59047 -17119391.95746                  21175535.4904
     -1634.1314
  22102255.0764  -11329565.34348 -11639189.27546                  22102249.8564
       556.8804
  20452030.5144  -25786783.59448 -20083759.90347                  20452026.0634
      1325.2204
  22676084.5564  -13023097.55747 -10143712.48245                  22676080.1714
       -28.8874
  23284410.3314   -2196846.01246  -2897453.00343                  23284404.6494
      3032.7544
  23761109.2964   -3633497.42446  -2814328.48744                  23761102.4634
      2278.3454
  23466725.9904  -11491223.47647  -8948539.73344                  23466721.8974
     -3065.6204
 06  6 29 11  8 59.9990000  0  9G 7G15G 1G16G25G21G19G23G14
  20645351.8744  -21954990.41848 -17089672.41047                  20645347.6594
     -1331.4364
  21775317.8364  -16796951.30948 -13082967.61546                  21775313.8094
      1415.8304
  21184905.6374  -21943747.67247 -17081038.77346                  21184901.6924
     -1646.9684
  22099071.8244  -11346292.31048 -11652223.23346                  22099066.8654
       558.3944
  20444503.1804  -25826340.88248 -20114583.76547                  20444498.8844
      1312.0214
  22676290.6514  -13022014.60048 -10142868.60945                  22676286.1654
       -43.0624
  23267125.7554   -2287677.17346  -2968230.47244                  23267120.6704
      3022.6664
  23748144.0234   -3701627.88946  -2867417.09944                  23748138.0054
      2263.6334
  23484224.9994  -11399260.60446  -8876880.34543                  23484221.2804
     -3065.0104
 06  6 29 11  9 29.9990000  0  9G 7G15G 1G16G25G21G19G23G14
  20652979.5404  -21914906.06947 -17058437.84947                  20652975.3794
     -1340.8944
  21767269.4694  -16839247.13948 -13115925.40346                  21767265.7034
      1403.6284
  21194343.6484  -21894148.47248 -17042390.04846                  21194340.0634
     -1659.8344
  22095878.6404  -11363070.44148 -11665297.09246                  22095873.6414
       559.9224
  20437050.3504  -25865505.26548 -20145101.43947                  20437046.3014
      1298.6674
  22676577.9354  -13020508.40148 -10141694.95445                  22676572.4304
       -57.4804
  23249898.2674   -2378208.67646  -3038774.44244                  23249892.6224
      3012.4714
  23735262.1394   -3769322.79246  -2920166.37444                  23735256.2764
      2249.1024
  23501721.0734  -11307319.82647  -8805238.16544                  23501718.2424
     -3064.5224
 06  6 29 11  9 59.9990000  0  9G 7G15G 1G16G25G21G19G23G14
  20660660.3914  -21874543.45748 -17026986.44047                  20660656.0344
     -1350.0294
  21759290.0944  -16881180.47647 -13148600.71346                  21759285.5324
      1391.5194
  21203854.6384  -21844171.61047 -17003447.02246                  21203850.4794
     -1672.2314
  22092676.6734  -11379899.05048 -11678410.39946                  22092671.5764
       561.7484
  20429672.8984  -25904273.61248 -20175310.53246                  20429668.7064
      1285.6064
  22676944.8324  -13018577.05148 -10140190.00145                  22676939.8404
       -71.5194
  23232727.6754   -2468438.07546  -3109082.98044                  23232722.2224
      3002.4074
  23722463.8884   -3836579.54246  -2972574.20344                  23722457.4694
      2234.5904
  23519212.7864  -11215403.26347  -8733614.90344                  23519209.7874
     -3063.5114
 06  6 29 11 10 29.9990000  0  9G 7G15G 1G16G25G21G19G23G14
  20668393.9334  -21833902.94748 -16995318.50447                  20668389.8554
     -1359.1604
  21751379.7514  -16922747.96448 -13180990.94746                  21751375.2444
      1379.5564
  21213435.9614  -21793818.44148 -16964210.76946                  21213432.9044
     -1684.5514
  22089465.0064  -11396777.00148 -11691562.11646                  22089459.6334
       563.4424
  20422371.7214  -25942642.33948 -20205208.26047                  20422366.9224
      1272.3444
  22677394.3364  -13016218.34748 -10138352.03745                  22677388.8974
       -85.6454
  23215615.8644   -2558361.99347  -3179153.57644                  23215610.1724
      2992.4804
  23709749.3174   -3903395.54546  -3024638.56944                  23709743.2774
      2219.8834
  23536698.6104  -11123512.13947  -8662011.39544                  23536695.1704
     -3062.4464
 06  6 29 11 10 59.9990000  0  9G 7G15G 1G16G25G21G19G23G14
  20676179.6534  -21792987.20148 -16963436.09547                  20676175.6774
     -1368.3744
  21743539.6484  -16963947.12648 -13213094.19046                  21743535.5324
      1367.2754
  21223089.0584  -21743091.94248 -16924683.62247                  21223085.6644
     -1697.0414
  22086243.9164  -11413704.95447 -11704752.71246                  22086238.7114
       565.1514
  20415146.9724  -25980609.34648 -20234792.92946                  20415142.5214
      1258.8924
  22677924.8774  -13013431.63848 -10136180.56545                  22677918.7304
       -99.9714
  23198563.3404   -2647979.42046  -3248985.28244                  23198557.1224
      2982.2564
  23697118.4104   -3969769.39647  -3076358.39344                  23697113.0904
      2205.1764
  23554178.8264  -11031649.19446  -8590429.90644                  23554175.9374
     -3061.5484
 06  6 29 11 11 29.9990000  0  9G 7G15G 1G16G25G21G19G23G14
  20684018.4834  -21751795.70748 -16931338.81547                  20684014.6754
     -1377.7544
  21735770.6494  -17004773.26147 -13244906.74046                  21735766.5924
      1354.5174
  21232813.0684  -21691992.19048 -16884865.64046                  21232809.3594
     -1709.6244
  22083013.0234  -11430680.61248 -11717980.45646                  22083008.1524
       566.4994
  20407998.8944  -26018170.04247 -20264060.96247                  20407994.5224
      1245.1124
  22678536.7974  -13010213.73248 -10133673.07745                  22678531.8114
      -114.5514
  23181568.3194   -2737286.62447  -3318575.32044                  23181562.0814
      2971.6414
  23684572.9124   -4035697.03246  -3127730.53644                  23684567.4134
      2190.0204
  23571655.9154  -10939814.24146  -8518870.22644                  23571651.0854
     -3060.8354
 06  6 29 11 11 59.9990000  0  9G 7G15G 1G16G25G21G19G23G14
  20691908.8614  -21710330.31048 -16899028.10547                  20691905.1764
     -1386.7434
  21728074.0364  -17045223.51448 -13276426.42446                  21728069.8464
      1342.0614
  21242607.4024  -21640521.30248 -16844758.44046                  21242603.7604
     -1721.8364
  22079773.8674  -11447703.88647 -11731245.37246                  22079768.8314
       568.2914
  20400929.3314  -26055321.87048 -20293010.44146                  20400924.5234
      1231.5724
  22679231.5514  -13006563.20348 -10130828.50645                  22679226.3614
      -128.8574
  23164632.9514   -2826280.33546  -3387921.05144                  23164627.0414
      2961.2994
  23672112.3364   -4101176.66547  -3178753.61244                  23672106.3764
      2175.2154
  23589124.9474  -10848009.60446  -8447334.14144                  23589121.2024
     -3059.5464
 06  6 29 11 12 29.9990000  0  9G 7G15G 1G16G25G21G19G23G14
  20699852.4664  -21668587.99547 -16866501.60947                  20699847.9014
     -1396.0214
  21720449.1454  -17085290.54647 -13307647.47146                  21720445.1424
      1329.0974
  21252472.7864  -21588677.16747 -16804360.38846                  21252468.9034
     -1734.4094
  22076525.9684  -11464769.89947 -11744543.51646                  22076521.3014
       569.5174
  20393939.0794  -26092057.72247 -20321635.77546                  20393934.3224
      1217.5204
  22680009.6834  -13002474.64648 -10127642.59745                  22680003.8444
      -143.6964
  23147758.2004   -2914954.98346  -3457018.11844                  23147752.1564
      2950.4104
  23659739.0924   -4166201.76247  -3229422.51044                  23659733.0424
      2159.8884
  23606589.1844  -10756232.82146  -8375819.77344                  23606585.9024
     -3058.8184
 06  6 29 11 12 59.9990000  0  9G 7G15G 1G16G25G21G19G23G14
  20707846.7274  -21626578.09548 -16833766.63347                  20707842.3474
     -1404.7804
  21712896.0104  -17124978.97248 -13338573.52046                  21712892.5764
      1316.6264
  21262407.7894  -21536469.15848 -16763678.82346                  21262404.5934
     -1746.2794
  22073269.2134  -11481886.16547 -11757880.87246                  22073264.0364
       571.4404
  20387026.6824  -26128382.45148 -20349940.76146                  20387021.8584
      1204.0144
  22680869.5104  -12997954.01248 -10124120.01445                  22680864.2624
      -157.9594
  23130943.6834   -3003315.62446  -3525870.53844                  23130938.1714
      2940.1514
  23647451.2184   -4230777.79847  -3279741.46945                  23647445.1114
      2145.0244
  23624046.7724  -10664493.46146  -8304334.55043                  23624042.4864
     -3057.1444
 06  6 29 11 13 29.9990000  0  9G 7G15G 1G16G25G21G19G23G14
  20715890.8334  -21584305.81548 -16800827.17347                  20715886.6854
     -1413.4864
  21705415.8914  -17164289.44448 -13369205.04046                  21705412.0354
      1304.0044
  21272410.8024  -21483903.24248 -16722718.34546                  21272407.6564
     -1758.1354
  22070001.9954  -11499055.86647 -11771259.81446                  22069996.7524
       573.1454
  20380192.3304  -26164297.03948 -20377926.13646                  20380187.5154
      1190.2104
  22681810.6834  -12993003.74448 -10120262.64745                  22681806.6074
      -172.1584
  23114189.7344   -3091363.78047  -3594479.49045                  23114183.4434
      2929.7074
  23635246.5574   -4294906.63246  -3329711.98344                  23635241.8104
      2130.1034
  23641495.8674  -10572797.40446  -8232883.10344                  23641492.5184
     -3055.7234
 06  6 29 11 13 59.9990000  0  9G 7G15G 1G16G25G21G19G23G14
  20723984.2304  -21541774.06448 -16767685.55347                  20723980.3824
     -1422.1684
  21698007.6514  -17203220.28948 -13399540.75546                  21698004.6184
      1291.2704
  21282481.0054  -21430982.89747 -16681481.69146                  21282477.5334
     -1770.0204
  22066724.4114  -11516279.80348 -11784681.06946                  22066719.0694
       574.9224
  20373436.1474  -26199799.91748 -20405590.71646                  20373431.7514
      1176.5144
  22682835.1284  -12987623.60948 -10116070.32745                  22682830.5264
      -186.6364
  23097494.3344   -3179098.23347  -3662843.95144                  23097488.3004
      2919.0674
  23623129.0444   -4358587.52946  -3379333.42544                  23623122.8154
      2115.0444
  23658936.0274  -10481147.55746  -8161467.63444                  23658932.4714
     -3054.3504
 06  6 29 11 14 29.9990000  0  9G 7G15G 1G16G25G21G19G23G14
  20732126.6454  -21498984.65948 -16734343.14847                  20732122.1994
     -1430.5814
  21690671.7404  -17241769.29547 -13429578.93346                  21690669.0844
      1278.5794
  21292618.7614  -21377710.92248 -16639971.05347                  21292615.2864
     -1781.5434
  22063436.0794  -11533558.37647 -11798144.84746                  22063431.1494
       576.8704
  20366758.9464  -26234889.14748 -20432932.95946                  20366754.2414
      1162.6864
  22683940.2844  -12981812.85047 -10111542.45745                  22683936.3284
      -200.8744
  23080858.3184   -3266517.79047  -3730963.07445                  23080853.4454
      2908.6874
  23611096.2874   -4421818.88547  -3428604.55044                  23611090.5144
      2100.2494
  23676367.9934  -10389546.40247  -8090090.08644                  23676363.6434
     -3052.5834
 06  6 29 11 14 59.9990000  0  9G 7G15G 1G16G25G21G19G23G14
  20740318.9574  -21455933.31548 -16700796.63947                  20740315.0454
     -1439.2284
  21683410.7634  -17279927.25548 -13459312.40546                  21683407.2194
      1265.5814
  21302823.7624  -21324083.06948 -16598183.11547                  21302820.5314
     -1793.2964
  22060138.7574  -11550885.19047 -11811646.24546                  22060133.9654
       578.5694
  20360161.8844  -26269555.75948 -20459945.89846                  20360157.1464
      1148.6774
  22685129.6054  -12975564.19247 -10106673.36845                  22685125.1374
      -215.4544
  23064284.8254   -3353613.86847  -3798830.13245                  23064279.0294
      2898.0424
  23599150.9224   -4484592.66747  -3477519.14644                  23599144.8514
      2084.9364
  23693789.5244  -10297989.65646  -8018747.16944                  23693786.3824
     -3050.9814
 06  6 29 11 15 29.9990000  0  9G 7G15G 1G16G25G21G19G23G14
  20748560.7114  -21412625.29248 -16667050.14447                  20748556.2684
     -1447.9054
  21676223.6074  -17317695.24148 -13488742.00446                  21676220.0544
      1252.2954
  21313095.0414  -21270105.32748 -16556122.53246                  21313091.7714
     -1805.1474
  22056831.7334  -11568263.59447 -11825187.88246                  22056826.7544
       580.0884
  20353645.4464  -26303801.00648 -20486630.50246                  20353640.5884
      1134.3704
  22686402.4084  -12968880.38048 -10101465.22145                  22686396.9354
      -230.1124
  23047771.3654   -3440388.21747  -3866446.52644                  23047765.3084
      2887.0904
  23587292.1574   -4546910.95747  -3526078.81944                  23587285.5404
      2069.5804
  23711202.9594  -10206483.10746  -7947443.32844                  23711199.8874
     -3049.5074
 06  6 29 11 15 59.9990000  0  9G 7G15G 1G16G25G21G19G23G14
  20756850.4304  -21369059.53648 -16633102.78047                  20756846.8104
     -1456.3484
  21669111.8174  -17355067.66248 -13517863.36046                  21669108.4964
      1239.2974
  21323433.7454  -21215777.29647 -16513789.00146                  21323430.0834
     -1816.6114
  22053515.7684  -11585690.47348 -11838767.27046                  22053510.6544
       581.8314
  20347209.6414  -26337619.51248 -20512982.57246                  20347205.3394
      1120.3224
  22687757.8394  -12961757.42648 -10095914.87345                  22687752.3624
      -244.6044
  23031322.2564   -3526836.38847  -3933808.68644                  23031315.2524
      2876.2894
  23575520.5634   -4608768.85447  -3574279.77644                  23575514.6074
      2054.3124
  23728607.6944  -10115026.39546  -7876178.43843                  23728603.4724
     -3047.5544
 06  6 29 11 16 29.9990000  0  9G 7G15G 1G16G25G21G19G23G14
  20765189.4044  -21325239.80647 -16598957.52347                  20765185.3204
     -1465.0054
  21662075.5954  -17392043.65648 -13546675.82246                  21662072.2074
      1225.7374
  21333837.6454  -21161103.13048 -16471185.74346                  21333833.3954
     -1828.3944
  22050189.8744  -11603167.34447 -11852385.60446                  22050184.8604
       583.2864
  20340855.9424  -26371010.87748 -20539001.79946                  20340851.1034
      1105.7134
  22689197.2814  -12954196.01448 -10090022.84745                  22689191.0044
      -259.5124
  23014933.2284   -3612957.99747  -4000916.43145                  23014927.3154
      2865.1024
  23563837.2984   -4670167.16747  -3622122.60345                  23563831.2864
      2038.7064
  23746000.5464  -10023623.02346  -7804954.93844                  23745996.5524
     -3045.9864
 06  6 29 11 16 59.9990000  0  9G 7G15G 1G16G25G21G19G23G14
  20773574.8794  -21281171.98747 -16564618.95147                  20773570.9334
     -1473.2964
  21655114.2884  -17428624.78647 -13575180.58846                  21655110.3314
      1212.5644
  21344306.1944  -21106089.38648 -16428317.85546                  21344302.6314
     -1839.6344
  22046853.9884  -11620698.39547 -11866046.12846                  22046848.4004
       585.0004
  20334583.0014  -26403976.73548 -20564689.48047                  20334578.4254
      1091.4994
  22690718.4854  -12946199.51248 -10083791.78245                  22690712.8094
      -274.0234
  22998606.4804   -3698755.39047  -4067771.50345                  22998600.4644
      2854.2824
  23552241.7344   -4731107.87347  -3669608.82044                  23552234.7084
      2023.4384
  23763382.1464   -9932279.33846  -7733778.02144                  23763378.7684
     -3044.0584
 06  6 29 11 17 29.9990000  0  9G 7G15G 1G16G25G21G19G23G14
  20782008.4704  -21236853.45848 -16530085.03047                  20782004.1614
     -1481.2794
  21648229.9004  -17464804.10748 -13603372.25646                  21648225.7974
      1199.4784
  21354840.0544  -21050734.08548 -16385183.83846                  21354836.2644
     -1850.6694
  22043508.5414  -11638278.91848 -11879745.18046                  22043503.2954
       587.0024
  20328391.6954  -26436510.29048 -20590040.27847                  20328387.2654
      1077.4374
  22692322.3494  -12937762.65447 -10077217.57845                  22692318.6284
      -288.4034
  22982342.7734   -3784222.33447  -4134369.08544                  22982336.4074
      2843.4134
  23540732.6134   -4791585.12947  -3716733.91244                  23540725.4884
      2008.3694
  23780752.8064   -9840993.11446  -7662645.96343                  23780749.8634
     -3041.6804
 06  6 29 11 17 59.9990000  0  9G 7G15G 1G16G25G21G19G23G14
  20790488.7074  -21192288.93248 -16495359.41447                  20790484.9394
     -1489.3804
  21641421.4074  -17500581.81348 -13631250.98646                  21641417.2984
      1186.0944
  21365438.0784  -20995042.59848 -16341787.88946                  21365434.4974
     -1861.7384
  22040153.2434  -11655911.58848 -11893484.94546                  22040147.5174
       588.8674
  20322282.8314  -26468612.18148 -20615054.71147                  20322278.2214
      1063.0084
  22694011.5394  -12928887.51247 -10070301.91545                  22694007.4334
      -302.9794
  22966141.1084   -3869360.04747  -4200710.13344                  22966135.1824
      2832.6034
  23529311.6254   -4851600.21847  -3763498.89944                  23529305.0124
      1992.9304
  23798113.1864   -9749769.32746  -7591562.47044                  23798109.7814
     -3039.5414
 06  6 29 11 18 29.9990000  0  9G 7G15G 1G16G25G21G19G23G14
  20799014.4014  -21147485.05048 -16460447.27547                  20799010.7334
     -1497.5984
  21634688.8864  -17535960.16748 -13658818.50946                  21634684.4054
      1172.5344
  21376098.5924  -20939022.03348 -16298135.47946                  21376094.5634
     -1872.8524
  22036787.1594  -11673601.14448 -11907269.03746                  22036781.7884
       590.5324
  20316255.9084  -26500284.79048 -20639734.66347                  20316251.0974
      1048.4724
  22695785.0784  -12919577.43548 -10063047.31045                  22695779.1914
      -317.5834
  22950001.8864   -3954171.30547  -4266796.78845                  22949995.6454
      2821.4794
  23517978.4814   -4911156.07847  -3809906.04444                  23517972.5284
      1977.4274
  23815458.6254   -9658614.78146  -7520532.95544                  23815455.9034
     -3037.3634
 06  6 29 11 18 59.9990000  0  9G 7G15G 1G16G25G21G19G23G14
  20807585.6944  -21102441.80148 -16425348.63047                  20807582.2664
     -1505.3034
  21628033.2694  -17570935.13647 -13686071.72346                  21628028.1494
      1159.2094
  21386820.9214  -20882673.43648 -16254227.45546                  21386817.1444
     -1883.6134
  22033410.4534  -11691345.51948 -11921095.82346                  22033405.4794
       592.4904
  20310311.1534  -26531524.12748 -20664076.99247                  20310306.9434
      1034.2044
  22697638.5174  -12909830.25147 -10055452.07545                  22697633.6894
      -332.1004
  22933926.1284   -4038652.63647  -4332626.36845                  22933920.0404
      2810.5814
  23506733.3174   -4970249.96247  -3855953.22644                  23506727.2614
      1962.2224
  23832793.1724   -9567529.94346  -7449557.79644                  23832788.3354
     -3034.8974
 06  6 29 11 19 29.9990000  0  9G 7G15G 1G16G25G21G19G23G14
  20816201.8714  -21057164.74648 -16390067.80047                  20816198.0674
     -1513.2034
  21621454.6194  -17605507.79048 -13713011.43546                  21621449.1954
      1145.6014
  21397604.8934  -20826002.72048 -16210068.42646                  21397601.2774
     -1894.4194
  22030022.2434  -11709148.45548 -11934968.22646                  22030017.2924
       594.2634
  20304448.7354  -26562331.69548 -20688082.87747                  20304444.4174
      1019.6094
  22699576.1154  -12899648.95647 -10047518.60645                  22699570.9674
      -346.7044
  22917912.6804   -4122806.13547  -4398200.52145                  22917906.1314
      2799.5904
  23495575.5824   -5028883.92547  -3901641.98644                  23495569.2854
      1946.6944
  23850109.8764   -9476520.53246  -7378641.35143                  23850106.7144
     -3032.5154
 06  6 29 11 19 59.9990000  0  9G 7G15G 1G16G25G21G19G23G14
  20824862.8404  -21011651.34948 -16354602.83147                  20824859.4024
     -1520.9084
  21614953.6084  -17639670.79348 -13739631.94046                  21614947.8544
      1132.0074
  21408450.3594  -20769007.64448 -16165656.67146                  21408446.9624
     -1905.1224
  22026624.6034  -11727004.71148 -11948882.16846                  22026619.4354
       596.1724
  20298669.5774  -26592700.26948 -20711746.68447                  20298665.4254
      1005.0684
  22701597.6994  -12889027.55648 -10039242.16545                  22701592.6074
      -361.3534
  22901962.0104   -4206625.12547  -4463514.00245                  22901955.0224
      2788.3544
  23484506.6954   -5087051.79946  -3946967.55744                  23484499.5554
      1931.1824
  23867414.7924   -9385584.16946  -7307781.78843                  23867411.1444
     -3029.9954
 06  6 29 11 20 29.9990000  0  9G 7G15G 1G16G25G21G19G23G14
  20833568.6774  -20965902.48948 -16318954.38247                  20833564.7774
     -1529.1854
  21608530.9124  -17673421.39847 -13765931.09046                  21608525.8404
      1117.8174
  21419357.9694  -20711690.31148 -16120993.84346                  21419354.3544
     -1916.1474
  22023216.9704  -11744913.73948 -11962837.22246                  22023211.0344
       597.5734
  20292974.8274  -26622627.47348 -20735066.58847                  20292970.4904
       989.9074
  22703702.5934  -12877965.16447 -10030622.12545                  22703697.2424
      -376.4554
  22886075.8824   -4290107.63947  -4528565.28645                  22886069.7274
      2776.8514
  23473526.7854   -5144751.42747  -3991928.27844                  23473519.6864
      1915.2444
  23884705.7134   -9294722.28646  -7236980.36243                  23884701.9144
     -3027.8664
 06  6 29 11 20 59.9990000  0  9G 7G15G 1G16G25G21G19G23G14
  20842318.7134  -20919919.34848 -16283123.36747                  20842315.1564
     -1536.4604
  21602187.8084  -17706756.00747 -13791906.09046                  21602183.1804
      1104.4094
  21430325.9314  -20654052.01748 -16076080.88346                  21430321.9414
     -1926.3774
  22019798.8464  -11762874.08748 -11976832.30646                  22019794.0374
       599.7704
  20287364.8254  -26652109.80548 -20758039.81847                  20287360.3044
       975.5474
  22705892.0504  -12866460.02847 -10021657.08645                  22705887.1674
      -390.7524
  22870254.0394   -4373251.06647  -4593352.36745                  22870247.5954
      2765.9334
  23462636.5304   -5201980.37647  -4036522.27444                  23462629.3454
      1900.0394
  23901981.1114   -9203936.11246  -7166237.92343                  23901978.2914
     -3024.7364
 06  6 29 11 21 29.9990000  0  9G 7G15G 1G16G25G21G19G23G14
  20851112.0274  -20873710.39948 -16247116.39247                  20851108.1334
     -1544.1704
  21595922.5014  -17739679.04547 -13817560.38146                  21595919.3364
      1090.4394
  21441353.4244  -20596102.33848 -16030925.28546                  21441349.7564
     -1936.9534
  22016370.1814  -11780892.63148 -11990872.77846                  22016365.2984
       601.4994
  20281838.3024  -26681152.02348 -20780670.12647                  20281833.4344
       960.5574
  22708163.5294  -12854518.07947 -10012351.65945                  22708159.3174
      -405.5524
  22854496.3464   -4456060.15347  -4657878.88845                  22854490.0354
      2754.6044
  23451834.9704   -5258744.07947  -4080753.69644                  23451828.6094
      1884.2974
  23919241.9804   -9113234.43146  -7095561.29044                  23919238.1754
     -3022.1394
 06  6 29 11 21 59.9990000  0  9G 7G15G 1G16G25G21G19G23G14
  20859948.7614  -20827274.90248 -16210932.87147                  20859944.5154
     -1551.2844
  21589736.6504  -17772185.17348 -13842889.84346                  21589735.2384
      1076.9294
  21452440.3064  -20537841.09948 -15985526.92646                  21452436.7274
     -1946.9824
  22012930.9474  -11798966.30148 -12004956.13746                  22012925.7064
       603.6724
  20276396.0934  -26709749.09748 -20802953.56047                  20276391.6434
       946.1574
  22710520.8174  -12842135.74347 -10002703.08445                  22710516.1534
      -419.7174
  22838802.1174   -4538530.35947  -4722141.36745                  22838796.4714
      2743.6824
  23441121.6904   -5315038.76947  -4124619.64644                  23441116.1764
      1868.9114
  23936485.8584   -9022616.40146  -7024949.88543                  23936481.8464
     -3018.9264
 06  6 29 11 22 29.9990000  0  9G 7G15G 1G16G25G21G19G23G14
  20868826.0034  -20780622.71648 -16174580.51447                  20868822.5614
     -1558.7454
  21583629.4154  -17804280.44248 -13867899.14546                  21583627.9914
      1062.9054
  21463584.3094  -20479278.99548 -15939894.13446                  21463580.5864
     -1957.1194
  22009479.4284  -11817102.97748 -12019088.64246                  22009473.8234
       605.5224
  20271037.8934  -26737906.92648 -20824894.71047                  20271033.3074
       931.1864
  22712959.2864  -12829320.60247  -9992717.26245                  22712954.2784
      -434.4974
  22823172.4734   -4620668.59747  -4786145.18445                  22823166.2654
      2732.2804
  23430497.4684   -5370870.82747  -4168125.14244                  23430491.1804
      1853.2424
  23953712.3514   -8932092.37646  -6954411.70444                  23953708.0434
     -3015.9184
 06  6 29 11 22 59.9990000  0  9G 7G15G 1G16G25G21G19G23G14
  20877746.0784  -20733748.41848 -16138055.07547                  20877742.1614
     -1566.3284
  21577601.6784  -17835954.98348 -13892580.61646                  21577600.4344
      1048.6474
  21474786.8224  -20420411.10448 -15894023.03846                  21474782.5134
     -1967.5004
  22006017.5184  -11835294.78048 -12033264.04546                  22006011.9944
       607.1874
  20265764.8544  -26765616.13448 -20846486.29847                  20265760.1184
       915.9724
  22715481.6514  -12816064.65347  -9982387.94145                  22715476.4614
      -449.4094
  22807605.5054   -4702465.87847  -4849883.25845                  22807600.9064
      2720.7474
  23419962.9214   -5426231.54547  -4211263.34944                  23419955.9644
      1837.2804
  23970921.4554   -8841657.12446  -6883942.73743                  23970917.1724
     -3013.0474
 06  6 29 11 23 29.9990000  0  9G 7G15G 1G16G25G21G19G23G14
  20886707.8284  -20686653.33248 -16101357.58347                  20886704.3244
     -1573.1544
  21571654.8454  -17867205.75847 -13916931.88346                  21571652.7314
      1034.8244
  21486046.5674  -20361239.45348 -15847915.25146                  21486042.7534
     -1977.1784
  22002545.3614  -11853541.09748 -12047481.95746                  22002540.9194
       609.4874
  20260577.9694  -26792874.02148 -20867726.21447                  20260572.9264
       901.3234
  22718088.4564  -12802366.79347  -9971714.27445                  22718083.4234
      -463.6964
  22792106.3104   -4783919.95247  -4913353.97145                  22792099.5254
      2709.6144
  23409518.0944   -5481119.30447  -4254032.99144                  23409511.4584
      1822.0214
  23988113.7674   -8751311.97646  -6813543.90843                  23988108.8024
     -3009.7024
 06  6 29 11 23 59.9990000  0  9G 7G15G 1G16G25G21G19G23G14
  20895711.3484  -20639341.98548 -16064491.59047                  20895707.0154
     -1580.7324
  21565788.9054  -17898033.21548 -13940953.26346                  21565783.4094
      1020.5134
  21497363.3494  -20301769.25448 -15801574.83646                  21497359.5554
     -1987.2754
  21999062.3884  -11871844.50048 -12061744.32746                  21999057.2004
       610.9814
  20255476.4024  -26819681.19048 -20888614.92947                  20255472.1014
       886.0254
  22720778.6774  -12788228.93947  -9960697.76945                  22720773.9664
      -478.6384
  22776671.3374   -4865031.74947  -4976557.95745                  22776665.4734
      2697.9304
  23399162.6114   -5535535.53747  -4296435.24344                  23399156.1674
      1805.8894
  24005287.6174   -8661061.83446  -6743219.14343                  24005282.5484
     -3006.7874
 06  6 29 11 24 29.9990000  0  9G 7G15G 1G16G25G21G19G23G14
  20904754.6794  -20591817.14248 -16027459.24547                  20904750.6554
     -1587.5054
  21560003.1524  -17928436.05048 -13964643.74246                  21559995.6344
      1006.3774
  21508736.2124  -20242004.07648 -15755004.55346                  21508732.6444
     -1996.7974
  21995568.3934  -11890205.35948 -12076051.45846                  21995563.1964
       613.1354
  20250461.4944  -26846036.45848 -20909151.50547                  20250456.5694
       871.0994
  22723553.4224  -12773651.43148  -9949338.67445                  22723548.2014
      -493.1014
  22761301.7474   -4945800.41047  -5039494.55545                  22761295.0074
      2686.7334
  23388897.6574   -5589479.67947  -4338469.61544                  23388890.2314
      1790.4254
  24022443.0974   -8570909.28846  -6672970.43343                  24022439.3764
     -3003.2714
 06  6 29 11 24 59.9990000  0  9G 7G15G 1G16G25G21G19G23G14
  20913838.2574  -20544083.39948 -15990264.13347                  20913834.2924
     -1594.6684
  21554298.6514  -17958414.31448 -13988003.41246                  21554294.1134
       992.0854
  21520164.2764  -20181948.77048 -15708208.15446                  21520160.8474
     -2006.7724
  21992062.8684  -11908626.00348 -12090405.19046                  21992058.4464
       614.9174
  20245532.0544  -26871940.14548 -20929336.17547                  20245527.6444
       855.8304
  22726409.2634  -12758635.97147  -9937638.30045                  22726405.2244
      -507.8524
  22745996.8154   -5026226.86147  -5102164.50845                  22745991.1574
      2675.0934
  23378722.0824   -5642952.95047  -4380137.09044                  23378714.7394
      1774.6244
  24039578.5824   -8480859.42346  -6602801.69743                  24039574.9494
     -2999.9314
 06  6 29 11 25 29.9990000  0  9G 7G15G 1G16G25G21G19G23G14
  20922961.3284  -20496139.58448 -15952905.31547                  20922957.3434
     -1601.4014
  21548676.0864  -17987962.98448 -14011028.34346                  21548673.5074
       977.8664
  21531647.9804  -20121603.35448 -15661185.72546                  21531644.2154
     -2016.2064
  21988546.8334  -11927103.28848 -12104803.05446                  21988541.3584
       616.9434
  20240689.7714  -26897387.46448 -20949165.26047                  20240685.4584
       840.7324
  22729351.8394  -12743179.40847  -9925594.21445                  22729346.7604
      -522.4614
  22730758.4184   -5106307.40047  -5164564.91845                  22730751.9074
      2663.6574
  23368636.8774   -5695951.49847  -4421434.61844                  23368629.5374
      1758.8184
  24056696.6394   -8390911.21646  -6532712.26343                  24056691.5604
     -2996.4504
 06  6 29 11 25 59.9990000  0  9G 7G15G 1G16G25G21G19G23G14
  20932123.9514  -20447991.71248 -15915387.50047                  20932119.3944
     -1608.2714
  21543134.4464  -18017084.20848 -14033720.21146                  21543131.4694
       963.6624
  21543184.9294  -20060974.89248 -15613942.74446                  21543181.5514
     -2025.5034
  21985019.0664  -11945641.32348 -12119248.27646                  21985013.9944
       618.9894
  20235933.2554  -26922380.80948 -20968640.58547                  20235929.0504
       825.5814
  22732376.7604  -12727285.32747  -9913209.23045                  22732371.0244
      -537.0074
  22715583.8884   -5186044.01547  -5226697.33144                  22715578.1144
      2652.2174
  23358640.7434   -5748478.47247  -4462364.72944                  23358634.0464
      1743.1844
  24073791.8724   -8301070.78046  -6462706.71643                  24073787.4924
     -2992.8614
 06  6 29 11 26 29.9990000  0  9G 7G15G 1G16G25G21G19G23G14
  20941324.7064  -20399640.15748 -15877710.95447                  20941320.6704
     -1615.4394
  21537674.5954  -18045773.81447 -14056075.74346                  21537670.6054
       948.8284
  21554775.9794  -20000063.94148 -15566479.66246                  21554771.8004
     -2035.3614
  21981480.2184  -11964237.75948 -12133739.01446                  21981475.1384
       620.5574
  20231264.6344  -26946916.13048 -20987759.02747                  20231260.1494
       809.8834
  22735484.0004  -12710951.70447  -9900481.72945                  22735479.3204
      -552.1004
  22700477.2424   -5265433.79347  -5288559.49745                  22700470.4504
      2640.2594
  23348735.7414   -5800530.96347  -4502925.07144                  23348729.2834
      1726.8514
  24090866.0054   -8211338.34046  -6392785.33443                  24090863.3384
     -2989.3654
 06  6 29 11 26 59.9990000  0  9G 7G15G 1G16G25G21G19G23G14
  20950564.6264  -20351084.49648 -15839875.37147                  20950560.2524
     -1621.6164
  21532297.7704  -18074027.49247 -14078091.59146                  21532293.3004
       934.8194
  21566420.3314  -19938871.06748 -15518796.88546                  21566417.1324
     -2044.2294
  21977930.8164  -11982890.26848 -12148273.46046                  21977925.7774
       622.9744
  20226683.5004  -26970989.23948 -21006517.28747                  20226679.3094
       794.9274
  22738676.2504  -12694175.89547  -9887409.66145                  22738672.1184
      -566.2944
  22685436.2684   -5344472.93047  -5350148.43645                  22685429.2674
      2629.0044
  23338921.0154   -5852105.37447  -4543112.94744                  23338914.3424
      1711.4554
  24107921.4734   -8121714.16246  -6322948.35343                  24107918.1614
     -2985.2684
 06  6 29 11 27 29.9990000  0  9G 7G15G 1G16G25G21G19G23G14
  20959841.3874  -20302333.75448 -15801887.78247                  20959837.3354
     -1628.3354
  21527003.2374  -18101850.13147 -14099771.56346                  21526999.4994
       920.0784
  21578116.7294  -19877405.91548 -15470901.94946                  21578112.8914
     -2053.4284
  21974369.4714  -12001605.59048 -12162856.81246                  21974364.2384
       624.8394
  20222189.5194  -26994605.62648 -21024919.66547                  20222185.1804
       779.4244
  22741951.9324  -12676964.75047  -9873998.38045                  22741946.2904
      -581.0694
  22670461.9084   -5423167.54047  -5411468.89645                  22670455.5724
      2617.2854
  23329196.8644   -5903207.95847  -4582933.09344                  23329190.8074
      1695.4834
  24124953.9974   -8032207.01246  -6253202.56543                  24124950.2474
     -2981.5334
 06  6 29 11 27 59.9990000  0  9G 7G15G 1G16G25G21G19G23G14
  20969156.7344  -20253382.73848 -15763744.11247                  20969152.2704
     -1634.9074
  21521793.2154  -18129232.49847 -14121108.45946                  21521788.7454
       905.4884
  21589865.2714  -19815664.19247 -15422791.51246                  21589861.9594
     -2062.5734
  21970797.5824  -12020376.44247 -12177483.45546                  21970793.2334
       626.7244
  20217783.9634  -27017756.11048 -21042959.00247                  20217779.5364
       763.9604
  22745310.6184  -12659310.47247  -9860241.80045                  22745306.1564
      -595.6744
  22655553.5574   -5501508.83747  -5472514.03245                  22655547.3374
      2605.5134
  23319563.8994   -5953830.59947  -4622379.33044                  23319556.3604
      1679.4584
  24141966.8104   -7942812.09746  -6183544.32843                  24141962.2064
     -2977.9104
 06  6 29 11 28 29.9990000  0  9G 7G15G 1G16G25G21G19G23G14
  20978508.3204  -20204239.76948 -15725450.88347                  20978503.7174
     -1641.0994
  21516665.2394  -18156178.89647 -14142105.65346                  21516661.0934
       891.1524
  21601666.0164  -19753654.89847 -15374472.58746                  21601662.2664
     -2071.1774
  21967213.9474  -12039208.61148 -12192157.84546                  21967209.3514
       628.9554
  20213466.7164  -27040444.97648 -21060638.63847                  20213461.9814
       748.7454
  22748754.3274  -12641218.93747  -9846144.49445                  22748749.0324
      -610.1174
  22640711.9804   -5579501.65047  -5533287.64345                  22640705.9734
      2594.2244
  23310021.3584   -6003978.47546  -4661455.55744                  23310013.3894
      1663.9014
  24158954.9814   -7853537.46547  -6113979.69644                  24158950.7154
     -2973.6434
 06  6 29 11 28 59.9990000  0  9G 7G15G 1G16G25G21G19G23G14
  20987896.2454  -20154905.98548 -15687008.97847                  20987891.6894
     -1647.9444
  21511620.8314  -18182686.54348 -14162760.94946                  21511616.8064
       875.9914
  21613516.1834  -19691379.87148 -15325946.60246                  21613513.2894
     -2080.5914
  21963618.8054  -12058101.31348 -12206879.44146                  21963613.7824
       630.5034
  20209237.3794  -27062669.77248 -21077956.66247                  20209233.4934
       732.7644
  22752280.1044  -12622688.94347  -9831705.54745                  22752274.9304
      -625.2444
  22625937.4404   -5657143.76347  -5593788.00645                  22625931.1134
      2581.8704
  23300569.0644   -6053649.80747  -4700160.46744                  23300562.1764
      1647.4514
  24175920.1144   -7764384.62447  -6044509.94843                  24175915.6564
     -2970.1074
 06  6 29 11 29 29.9990000  0  9G 7G15G 1G16G25G21G19G23G14
  20997321.7544  -20105373.08948 -15648411.90447                  20997317.9094
     -1654.5264
  21506662.5674  -18208743.10848 -14183064.76146                  21506658.8044
       860.8694
  21625418.9804  -19628831.76348 -15277207.81546                  21625415.5554
     -2089.6484
  21960014.1144  -12077043.87248 -12221639.86646                  21960009.0124
       632.1244
  20205098.8964  -27084418.54348 -21094903.75747                  20205095.0894
       716.8314
  22755891.3944  -12603710.29847  -9816916.97945                  22755886.6604
      -640.2644
  22611231.6044   -5734423.83947  -5654006.23645                  22611225.0684
      2569.7904
  23291209.2964   -6102833.58947  -4738485.48144                  23291203.1624
      1631.2164
  24192863.6114   -7675345.30346  -5975128.62343                  24192858.7674
     -2966.1384
 06  6 29 11 29 59.9990000  0  9G 7G15G 1G16G25G21G19G23G14
  21006783.8104  -20055649.10948 -15609665.93246                  21006779.9724
     -1660.3664
  21501789.4674  -18234352.77448 -14203020.33546                  21501784.9354
       846.4314
  21637371.4394  -19566019.39548 -15228263.11246                  21637368.9244
     -2097.8474
  21956398.6634  -12096042.18048 -12236443.74646                  21956393.5504
       634.4534
  20201049.9604  -27105695.41448 -21111483.12947                  20201045.7174
       701.5974
  22759587.5954  -12584288.47047  -9801783.08045                  22759582.1594
      -654.5754
  22596593.2704   -5811346.59547  -5713946.01346                  22596587.5674
      2558.3404
  23281941.8794   -6151534.92647  -4776434.57244                  23281935.7544
      1615.5424
  24209783.4314   -7586427.64146  -5905842.23943                  24209779.2144
     -2961.7144
 06  6 29 11 30 29.9990000  0  9G 7G15G 1G16G25G21G19G23G14
  21016280.3484  -20005744.27148 -15570779.02047                  21016276.2104
     -1666.7044
  21496999.6874  -18259521.54248 -14222632.34946                  21496995.3824
       831.3774
  21649372.8634  -19502953.54348 -15179120.90546                  21649368.6264
     -2106.5974
  21952771.9674  -12115103.78447 -12251296.95346                  21952765.7374
       636.2014
  20197089.6164  -27126506.93947 -21127699.89947                  20197085.7174
       685.6594
  22763366.2744  -12564431.79647  -9786310.35345                  22763361.1334
      -669.2824
  22582022.3594   -5887918.86548  -5773612.73346                  22582015.7694
      2546.2994
  23272765.2814   -6199761.18847  -4814013.45145                  23272757.7924
      1599.2924
  24226680.1554   -7497641.83246  -5836658.50443                  24226674.3904
     -2957.6274
 06  6 29 11 30 59.9990000  0  9G 7G15G 1G16G25G21G19G23G14
  21025811.8504  -19955656.99248 -15531749.97047                  21025807.9864
     -1672.7104
  21492295.3384  -18284243.98448 -14241896.58746                  21492291.4044
       816.5334
  21661422.1334  -19439633.39648 -15129780.52146                  21661418.4524
     -2114.9714
  21949133.2664  -12134225.19148 -12266196.74546                  21949127.6954
       638.2574
  20193218.8664  -27146847.68648 -21143549.82347                  20193215.0564
       670.0154
  22767227.9044  -12544136.32847  -9770495.71045                  22767223.5204
      -683.9504
  22567518.3444   -5964136.35547  -5833002.95746                  22567512.5124
      2534.5654
  23263678.3934   -6247507.77946  -4851218.58045                  23263672.2944
      1583.5064
  24243549.5484   -7408986.27146  -5767576.23843                  24243546.5514
     -2953.1934
 06  6 29 11 31 29.9990000  0  9G 7G15G 1G16G25G21G19G23G14
  21035378.1954  -19905386.59748 -15492578.23047                  21035373.9174
     -1678.7844
  21487676.3804  -18308515.60148 -14260809.53246                  21487672.0604
       801.3874
  21673519.6094  -19376059.38948 -15080242.33046                  21673516.0654
     -2123.4424
  21945483.7134  -12153403.33948 -12281140.74246                  21945478.0114
       640.1324
  20189438.4634  -27166713.58948 -21159029.73647                  20189434.0584
       654.1264
  22771174.2924  -12523399.64047  -9754337.24845                  22771169.1144
      -698.7454
  22553083.4324   -6039994.36947  -5892113.07546                  22553076.8534
      2522.4854
  23254685.0634   -6294771.62847  -4888047.54744                  23254677.3714
      1567.2664
  24260395.0124   -7320460.70845  -5698595.30443                  24260393.0474
     -2948.8624
 06  6 29 11 31 59.9990000  0  9G 7G15G 1G16G25G21G19G23G14
  21044978.5894  -19854934.07247 -15453264.56946                  21044974.6144
     -1684.6874
  21483143.8234  -18332333.70748 -14279369.08446                  21483139.7694
       786.4114
  21685665.3294  -19312233.18348 -15030507.62546                  21685662.5094
     -2131.6114
  21941823.6394  -12172637.01448 -12296128.00646                  21941818.1344
       642.1444
  20185749.0654  -27186101.75348 -21174137.38747                  20185744.7154
       638.3844
  22775203.7804  -12502219.91847  -9737833.55745                  22775199.3744
      -713.2574
  22538716.9264   -6115490.95348  -5950941.57946                  22538710.8334
      2510.5964
  23245782.9724   -6341550.86047  -4924498.88344                  23245776.4374
      1551.3574
  24277217.4214   -7232065.85045  -5629716.27043                  24277214.2454
     -2943.9314
 06  6 29 11 32 29.9990000  0  9G 7G15G 1G16G25G21G19G23G14
  21054612.9654  -19804304.06148 -15413812.60446                  21054609.4124
     -1690.7914
  21478697.7004  -18355698.92448 -14297575.73346                  21478693.7504
       771.0744
  21697858.2254  -19248160.19548 -14980580.62146                  21697854.4954
     -2140.0494
  21938152.2344  -12191928.23848 -12311160.12146                  21938147.0724
       643.8624
  20182150.5504  -27205013.28248 -21188873.63447                  20182146.0244
       622.2904
  22779318.6034  -12480600.19047  -9720987.01845                  22779313.3194
      -728.1014
  22524418.4514   -6190627.78747  -6009489.74346                  22524412.3874
      2498.4134
  23236973.3154   -6387847.01547  -4960573.77244                  23236966.4004
      1534.9614
  24294012.2744   -7143806.42845  -5560942.74242                  24294009.1494
     -2939.8494
 06  6 29 11 32 59.9990000  0  9G 7G15G 1G16G25G21G19G23G14
  21064280.8014  -19753499.98348 -15374225.01546                  21064276.9274
     -1696.3144
  21474337.5924  -18378610.97748 -14315429.28446                  21474333.3024
       756.2114
  21710097.3254  -19183844.71848 -14930464.65646                  21710093.2244
     -2147.8474
  21934470.4614  -12211278.72448 -12326238.40346                  21934464.5774
       646.0354
  20178642.2114  -27223448.03148 -21203238.37447                  20178638.0124
       606.5824
  22783515.8204  -12458541.56047  -9703798.48145                  22783510.8844
      -742.5204
  22510188.8064   -6265405.05547  -6067757.71046                  22510182.8324
      2486.7094
  23228254.6314   -6433661.22247  -4996273.15245                  23228249.0294
      1519.2334
  24310780.6124   -7055685.97746  -5492277.50843                  24310776.9434
     -2935.0294
 06  6 29 11 33 29.9990000  0  9G 7G15G 1G16G25G21G19G23G14
  21073981.1774  -19702525.67548 -15334504.75747                  21073977.4634
     -1702.0754
  21470064.0674  -18401069.51448 -14332929.43246                  21470060.3384
       740.8354
  21722381.3634  -19119291.13648 -14880163.13146                  21722377.5164
     -2155.9034
  21930776.2054  -12230689.61947 -12341363.79046                  21930770.9294
       647.8274
  20175224.9374  -27241406.04548 -21217231.62547                  20175220.4664
       590.4394
  22787796.9434  -12436045.41747  -9686269.02745                  22787792.3054
      -757.3884
  22496027.3484   -6339823.54747  -6125746.13546                  22496021.6884
      2474.4344
  23219628.6644   -6478994.41447  -5031597.70545                  23219621.5794
      1502.9004
  24327522.4404   -6967708.47446  -5423723.58343                  24327518.6344
     -2930.4254
 06  6 29 11 33 59.9990000  0  9G 7G15G 1G16G25G21G19G23G14
  21083714.1564  -19651378.07648 -15294649.47447                  21083710.4754
     -1707.5684
  21465877.8374  -18423068.10648 -14350071.18146                  21465873.9534
       725.8744
  21734710.8964  -19054497.66748 -14829674.71046                  21734707.5754
     -2163.5254
  21927071.9894  -12250155.47448 -12356531.99346                  21927066.9854
       650.0834
  20171899.1704  -27258881.01848 -21230848.47647                  20171895.1764
       574.6924
  22792162.2854  -12413107.07147  -9668394.98345                  22792157.1524
      -771.7534
  22481935.1794   -6413876.99447  -6183450.09046                  22481929.6684
      2462.5884
  23211094.3464   -6523841.15947  -5066543.23845                  23211087.8614
      1487.0514
  24344238.2414   -6879871.00546  -5355278.84643                  24344233.4344
     -2925.3174
 06  6 29 11 34 29.9990000  0  9G 7G15G 1G16G25G21G19G23G14
  21093478.4204  -19600067.44948 -15254667.16847                  21093474.5744
     -1712.9054
  21461777.3274  -18444612.73948 -14366859.21546                  21461773.7804
       710.6794
  21747084.5864  -18989474.85448 -14779007.57446                  21747081.1604
     -2171.0694
  21923355.8734  -12269684.30748 -12371749.30146                  21923350.9554
       652.1394
  20168664.8534  -27275879.13348 -21244093.74547                  20168660.8684
       558.8284
  22796609.9264  -12389734.98047  -9650182.97445                  22796604.7434
      -786.1914
  22467911.8724   -6487572.28047  -6240874.98346                  22467905.8864
      2450.7624
  23202651.6034   -6568208.46947  -5101115.13145                  23202644.9064
      1471.0894
  24360925.5644   -6792183.26946  -5286950.81043                  24360920.7044
     -2920.2204
 06  6 29 11 34 59.9990000  0  9G 7G15G 1G16G25G21G19G23G14
  21103272.9214  -19548596.64148 -15214560.03147                  21103268.7914
     -1718.4674
  21457764.5384  -18465703.22648 -14383293.35546                  21457761.0204
       695.2304
  21759500.3634  -18924226.88548 -14728165.00146                  21759496.4294
     -2178.8044
  21919627.7174  -12289276.61948 -12387016.03546                  21919622.5144
       654.0094
  20165520.8424  -27292400.12548 -21256967.24847                  20165516.7334
       542.5784
  22801139.5094  -12365929.86647  -9631633.53045                  22801134.4574
      -800.8154
  22453956.3454   -6560909.52247  -6298020.88146                  22453950.0404
      2438.4864
  23194299.6204   -6612097.12647  -5135314.08345                  23194292.8584
      1454.8104
  24377581.5914   -6704648.54046  -5218741.99243                  24377577.7804
     -2915.3864
 06  6 29 11 35 29.9990000  0  8G 7G15G 1G16G25G21G19G23
  21113098.3674  -19496963.65548 -15174326.51247                  21113094.5344
     -1723.8434
  21453838.9504  -18486333.30148 -14399368.73846                  21453835.0054
       679.8684
  21771960.3344  -18858752.28648 -14677145.83646                  21771956.4654
     -2186.3094
  21915888.0094  -12308927.94148 -12402328.75746                  21915883.0504
       655.8944
  20162469.0104  -27308438.32248 -21269464.54747                  20162465.3054
       526.4404
  22805753.2664  -12341687.66448  -9612743.50245                  22805747.7784
      -815.4354
  22440069.8844   -6633883.53548  -6354883.73046                  22440064.0394
      2426.3134
  23186039.5554   -6655502.37447  -5169136.34945                  23186033.7344
      1438.7314
 06  6 29 11 35 59.9990000  0  8G 7G15G 1G16G25G21G19G23
  21122955.0524  -19445165.89348 -15133964.61447                  21122951.0764
     -1729.2974
  21450001.8444  -18506496.94148 -14415080.65446                  21449997.7854
       664.3654
  21784463.0444  -18793049.61948 -14625948.96046                  21784459.5724
     -2193.8094
  21912137.5774  -12328633.58548 -12417683.77346                  21912132.4084
       657.8474
  20159510.2424  -27323987.82848 -21281581.03747                  20159505.5704
       510.2254
  22810450.2484  -12317003.92347  -9593509.41945                  22810445.0314
      -830.1174
  22426253.4134   -6706488.92747  -6411459.34446                  22426246.8554
      2414.1114
  23177872.9374   -6698418.86447  -5202577.75945                  23177866.8904
      1422.4464
 06  6 29 11 36 29.9990000  0  8G 7G15G 1G16G25G21G19G23
  21132841.6054  -19393212.44448 -15093481.38547                  21132837.4084
     -1734.4974
  21446252.6314  -18526199.21548 -14430433.07146                  21446248.4744
       648.9014
  21797007.3454  -18727128.48348 -14574581.83746                  21797003.7394
     -2201.1234
  21908376.3724  -12348400.05548 -12433086.22246                  21908371.5944
       659.8194
  20156643.3194  -27339054.09248 -21293320.98746                  20156638.4694
       493.9894
  22815229.3914  -12291885.43547  -9573936.56945                  22815224.7614
      -844.5904
  22412505.8884   -6778731.51047  -6467752.23146                  22412500.5934
      2401.9094
  23169797.9934   -6740853.63547  -5235643.81345                  23169791.3134
      1406.2454
 06  6 29 11 36 59.9990000  0  8G 7G15G 1G16G25G21G19G23
  21142758.0334  -19341100.34548 -15052874.55847                  21142754.2704
     -1739.5704
  21442592.3044  -18545433.88548 -14445421.13046                  21442587.9864
       633.4574
  21809593.6404  -18660987.12148 -14523043.11546                  21809589.9984
     -2208.2084
  21904605.0514  -12368222.11548 -12448531.98546                  21904599.8134
       661.7334
  20153869.0994  -27353630.71548 -21304679.39647                  20153864.4094
       477.7834
  22820093.5634  -12266327.59447  -9554021.36845                  22820088.8124
      -859.1504
  22398828.6504   -6850605.36747  -6523757.80946                  22398822.6754
      2389.7804
  23161816.0734   -6782800.65347  -5268329.77745                  23161809.3084
      1390.2444
 06  6 29 11 37 29.9990000  0  8G 7G15G 1G16G25G21G19G23
  21152703.8724  -19288834.98048 -15012148.30047                  21152699.9464
     -1744.7664
  21439020.6454  -18564202.78548 -14460046.23646                  21439016.7744
       617.7734
  21822220.5044  -18594631.54448 -14471337.46346                  21822216.8014
     -2215.5184
  21900821.7414  -12388102.70848 -12464023.34346                  21900816.0754
       663.5994
  20151188.4984  -27367719.74548 -21315657.85347                  20151183.8784
       461.4454
  22825039.4764  -12240333.86247  -9533766.50045                  22825035.0474
      -873.7704
  22385221.1114   -6922112.88547  -6579477.96146                  22385215.3664
      2377.4714
  23153926.3454   -6824263.35247  -5300638.35245                  23153920.0374
      1373.9454
 06  6 29 11 37 59.9990000  0  8G 7G15G 1G16G25G21G19G23
  21162679.9344  -19236411.05448 -14971298.48247                  21162675.9394
     -1750.0394
  21435539.2464  -18582496.50948 -14474301.08546                  21435535.4614
       601.9094
  21834889.4244  -18528057.26748 -14419461.39746                  21834885.8684
     -2222.6764
  21897028.6394  -12408034.15848 -12479554.32046                  21897023.6114
       665.2984
  20148601.6494  -27381312.54548 -21326249.62547                  20148597.2194
       444.8394
  22830070.4804  -12213897.06947  -9513166.40645                  22830065.6754
      -888.6044
  22371684.9724   -6993245.99647  -6634906.33446                  22371679.2054
      2364.9414
  23146129.0954   -6865233.88147  -5332563.42445                  23146122.5854
      1357.5444
 06  6 29 11 38 29.9990000  0  8G 7G15G 1G16G25G21G19G23
  21172684.9364  -19183833.55248 -14930328.98647                  21172681.3044
     -1755.2544
  21432148.2504  -18600316.57648 -14488186.85446                  21432144.3704
       585.9864
  21847598.5834  -18461270.25348 -14367419.55546                  21847595.0124
     -2229.8104
  21893226.1834  -12428019.02848 -12495126.96046                  21893220.5194
       666.9684
  20146109.3914  -27394410.71948 -21336455.98646                  20146104.9964
       428.2134
  22835185.2214  -12187020.28548  -9492223.45745                  22835180.4724
      -903.3794
  22358219.9694   -7064006.70047  -6690044.52146                  22358213.7924
      2352.4274
  23138426.1874   -6905714.70647  -5364106.91745                  23138419.6104
      1341.0744
 06  6 29 11 38 59.9990000  0  8G 7G15G 1G16G25G21G19G23
  21182719.0064  -19131104.43448 -14889241.35847                  21182715.2314
     -1759.9714
  21428847.6714  -18617661.54748 -14501702.40546                  21428843.7814
       570.4204
  21860347.7594  -18394273.47148 -14315214.27246                  21860344.5314
     -2236.5194
  21889413.3614  -12448056.68348 -12510740.69646                  21889407.7624
       669.0334
  20143710.8824  -27407012.95748 -21346275.91846                  20143706.3534
       411.9144
  22840383.1434  -12159704.03048  -9470938.05445                  22840378.3344
      -917.6614
  22344825.8884   -7134393.73147  -6744891.55246                  22344819.5754
      2340.1814
  23130816.4594   -6945705.10147  -5395268.23045                  23130810.0464
      1324.9764
 06  6 29 11 39 29.9990000  0  8G 7G15G 1G16G25G21G19G23
  21192779.8954  -19078233.09948 -14848042.91747                  21192776.4114
     -1764.8884
  21425636.4104  -18634537.31248 -14514852.36746                  21425632.6224
       554.5174
  21873134.5474  -18327077.14148 -14262853.48846                  21873131.0914
     -2243.3254
  21885588.3834  -12468154.85448 -12526401.57446                  21885582.8324
       670.7814
  20141406.2814  -27419125.13148 -21355713.97747                  20141401.6394
       395.4394
  22845663.7374  -12131955.36047  -9449315.70945                  22845658.4534
      -932.2854
  22331501.7314   -7204413.53747  -6799452.43646                  22331495.0344
      2327.6564
  23123297.9534   -6985212.22347  -5426052.98545                  23123291.2394
      1308.6914
 06  6 29 11 39 59.9990000  0  8G 7G15G 1G16G25G21G19G23
  21202868.1014  -19025219.15348 -14806733.35647                  21202864.4544
     -1769.6634
  21422515.0454  -18650940.14148 -14527633.77946                  21422510.8084
       538.7014
  21885959.7054  -18259681.78848 -14210337.60846                  21885955.3504
     -2249.9954
  21881752.9224  -12488310.23348 -12542107.04046                  21881747.3164
       672.6074
  20139195.4904  -27430743.76948 -21364767.45847                  20139190.8264
       378.8674
  22851027.2634  -12103772.35147  -9427354.92045                  22851021.7264
      -946.8164
  22318247.5304   -7274063.26847  -6853724.94246                  22318240.8044
      2315.2934
  23115872.9214   -7024233.74247  -5456459.36545                  23115866.6654
      1292.3394
 06  6 29 11 40 29.9990000  0  8G 7G15G 1G16G25G21G19G23
  21212984.3574  -18972058.10848 -14765309.16647                  21212980.5624
     -1774.3314
  21419485.1834  -18666861.93248 -14540040.36246                  21419480.8534
       522.8864
  21898822.9564  -18192083.64048 -14157663.70546                  21898819.1674
     -2256.4364
  21877907.3574  -12508515.68648 -12557851.56646                  21877902.2314
       674.5464
  20137079.5414  -27441861.00248 -21373430.24247                  20137075.3124
       362.4124
  22856473.0824  -12075148.71847  -9405050.77945                  22856468.2814
      -961.2704
  22305065.3884   -7343335.39047  -6907703.20946                  22305058.5194
      2302.9744
  23108540.6184   -7062762.43646  -5486481.70545                  23108534.3424
      1276.3384
 06  6 29 11 40 59.9990000  0  8G 7G15G 1G16G25G21G19G23
  21223125.7734  -18918764.54048 -14723781.71947                  21223122.0544
     -1778.5354
  21416544.9284  -18682313.80148 -14552080.77546                  21416541.2534
       507.3294
  21911722.2374  -18124298.42748 -14104844.06546                  21911718.2264
     -2262.5004
  21874050.4524  -12528783.89548 -12573644.96746                  21874045.2334
       676.7874
  20135056.9194  -27452488.29948 -21381711.25447                  20135052.8554
       346.1774
  22862001.2644  -12046097.89648  -9382413.77745                  22861996.3824
      -975.4004
  22291952.9494   -7412241.75447  -6961396.44946                  22291947.1974
      2290.8644
  23101300.2564   -7100810.94946  -5516129.86645                  23101293.8414
      1260.4354
 06  6 29 11 41 29.9990000  0  8G 7G15G 1G16G25G21G19G23
  21233293.5484  -18865333.62848 -14682147.25647                  21233289.6334
     -1783.0134
  21413695.8574  -18697287.24848 -14563748.39446                  21413691.3554
       491.3964
  21924657.6234  -18056321.93347 -14051875.35146                  21924654.1734
     -2268.7264
  21870183.0454  -12549107.25747 -12589481.37846                  21870177.7374
       678.7014
  20133129.4084  -27462617.36748 -21389604.01647                  20133125.5254
       329.6344
  22867612.7064  -12016612.44547  -9359438.10945                  22867607.3444
      -989.7274
  22278911.4534   -7480774.63447  -7014798.69646                  22278905.0344
      2278.5504
  23094153.0674   -7138371.78246  -5545398.03545                  23094146.9814
      1244.1164
 06  6 29 11 41 59.9990000  0  8G 7G15G 1G16G25G21G19G23
  21243486.5094  -18811769.12548 -14640408.68847                  21243482.9424
     -1787.7204
  21410937.5014  -18711783.12448 -14575043.86946                  21410932.9894
       475.2104
  21937628.7464  -17988159.10847 -13998761.46446                  21937624.7354
     -2275.1124
  21866304.7584  -12569487.22048 -12605361.85746                  21866299.7994
       680.3084
  20131296.7364  -27472249.06248 -21397109.24547                  20131292.7104
       312.7834
  22873305.1624  -11986694.77747  -9336125.62245                  22873299.9404
     -1004.4144
  22265940.9894   -7548935.13147  -7067910.74746                  22265934.9634
      2265.8114
  23087097.6344   -7175446.94046  -5574287.74045                  23087090.7194
      1227.7834
 06  6 29 11 42 29.9990000  0  8G 7G15G 1G16G25G21G19G23
  21253704.5654  -18758072.88548 -14598567.45347                  21253700.5214
     -1792.1004
  21408270.0534  -18725799.70848 -14585965.87746                  21408265.9904
       459.1804
  21950634.4074  -17919812.64948 -13945504.46246                  21950630.4104
     -2281.2604
  21862417.2654  -12589922.90348 -12621285.77446                  21862411.4554
       682.0614
  20129558.8954  -27481381.98248 -21404225.80547                  20129554.7614
       296.0604
  22879080.8364  -11956345.76348  -9312477.04545                  22879075.2464
     -1018.9214
  22253041.7534   -7616722.25347  -7120731.89346                  22253035.3924
      2253.2674
  23080134.6764   -7212035.89446  -5602798.60545                  23080128.9264
      1211.3434
 06  6 29 11 42 59.9990000  0  8G 7G15G 1G16G25G21G19G23
  21263947.5874  -18704246.08648 -14556624.50047                  21263943.4224
     -1796.4604
  21405694.3994  -18739334.81748 -14596512.70446                  21405690.1514
       443.0864
  21963675.0794  -17851284.68147 -13892106.05346                  21963671.0834
     -2287.3244
  21858518.2144  -12610413.27848 -12637252.32246                  21858511.7164
       683.8484
  20127916.4164  -27490014.22248 -21410952.24347                  20127912.3744
       279.3654
  22884938.0514  -11925564.25147  -9288491.44145                  22884933.3054
     -1033.3644
  22240213.4944   -7684134.31147  -7173260.76346                  22240206.9574
      2240.7864
  23073265.0914   -7248137.31747  -5630929.59145                  23073258.3374
      1195.1814
 06  6 29 11 43 29.9990000  0  8G 7G15G 1G16G25G21G19G23
  21274214.9724  -18650288.35347 -14514579.50947                  21274211.3024
     -1800.6594
  21403210.6754  -18752384.79748 -14606681.50046                  21403206.5804
       426.9484
  21976750.0784  -17782575.61747 -13838566.50246                  21976745.4484
     -2293.2674
  21854607.7234  -12630955.41647 -12653259.15746                  21854602.1594
       685.5814
  20126369.7934  -27498142.25847 -21417285.77247                  20126365.3814
       262.5834
  22890878.6144  -11894348.01347  -9264167.09145                  22890873.5954
     -1047.7254
  22227456.7934   -7751168.33247  -7225495.04446                  22227450.6384
      2228.1844
  23066489.2024   -7283749.13147  -5658679.03845                  23066482.3534
      1178.9214
 06  6 29 11 43 59.9990000  0  8G 7G15G 1G16G25G21G19G23
  21284507.1044  -18596204.58748 -14472436.31947                  21284502.8504
     -1805.1274
  21400819.8054  -18764951.16148 -14616473.47146                  21400815.8994
       410.5524
  21989858.2724  -17713691.40647 -13784890.47146                  21989854.2654
     -2299.3164
  21850688.4884  -12651551.94747 -12669308.42246                  21850683.7864
       687.2564
  20124918.5544  -27505768.04548 -21423227.95147                  20124914.5844
       245.5914
  22896900.7164  -11862700.89347  -9239506.99745                  22896895.3764
     -1062.3394
  22214772.6794   -7817826.59847  -7277436.55646                  22214766.2374
      2215.4544
  23059805.1624   -7318874.07646  -5686049.12845                  23059798.1654
      1162.4024
 06  6 29 11 44 29.9990000  0  8G 7G15G 1G16G25G21G19G23
  21294823.1754  -18541994.37448 -14430194.60246                  21294818.9844
     -1809.0284
  21398520.9164  -18777030.32248 -14625885.79646                  21398516.5564
       394.5414
  22003000.1724  -17644632.52148 -13731078.35046                  22002995.4744
     -2304.8004
  21846759.9594  -12672199.72847 -12685397.59046                  21846754.4214
       689.2294
  20123563.7634  -27512887.82148 -21428775.82147                  20123559.2684
       228.8284
  22903005.5354  -11830620.67847  -9214509.41644                  22903000.3154
     -1076.5634
  22202160.6064   -7884105.83947  -7329082.71146                  22202153.3944
      2203.0274
  23053213.6254   -7353509.71747  -5713037.92645                  23053206.0704
      1146.3624
 06  6 29 11 44 59.9990000  0  8G 7G15G 1G16G25G21G19G23
  21305162.0944  -18487660.43948 -14387856.46146                  21305158.4234
     -1812.9444
  21396315.4154  -18788621.82048 -14634918.12946                  21396311.3824
       378.4774
  22016173.1964  -17575402.90747 -13677133.21246                  22016169.6164
     -2310.2054
  21842821.6464  -12692899.47948 -12701527.27746                  21842815.3974
       691.0794
  20122305.0834  -27519501.67948 -21433929.47447                  20122300.5724
       212.2024
  22909191.9764  -11798108.59747  -9189175.34344                  22909187.0804
     -1090.6844
  22189620.1754   -7950006.39747  -7380433.81246                  22189613.6884
      2190.5474
  23046715.6454   -7387656.69147  -5739645.94945                  23046708.9634
      1130.2104
 06  6 29 11 45 29.9990000  0  8G 7G15G 1G16G25G21G19G23
  21315524.1324  -18433208.83948 -14345426.64546                  21315519.9694
     -1817.1884
  21394201.2804  -18799728.36448 -14643572.57046                  21394197.7184
       361.9684
  22029378.4184  -17506009.07947 -13623060.09346                  22029375.0444
     -2316.1284
  21838871.5184  -12713653.90248 -12717699.54046                  21838866.2554
       692.5294
  20121142.1104  -27525612.20548 -21438690.91847                  20121137.7374
       195.0784
  22915460.6994  -11765169.22247  -9163508.29244                  22915455.6044
     -1105.3614
  22177150.6824   -8015531.22847  -7431492.12546                  22177144.1044
      2177.6864
  23040309.8804   -7421318.52147  -5765875.92045                  23040302.8954
      1113.7994
 06  6 29 11 45 59.9990000  0  8G 7G15G 1G16G25G21G19G23
  21325907.7994  -18378641.92948 -14302906.96546                  21325903.4444
     -1820.6984
  21392180.3024  -18810349.38648 -14651848.69046                  21392176.7924
       346.1084
  22042614.0714  -17436454.73747 -13568861.90646                  22042611.2244
     -2320.9674
  21834911.9694  -12734463.60548 -12733914.88846                  21834905.6634
       694.7274
  20120075.7324  -27531219.31948 -21443060.10746                  20120070.9474
       178.6674
  22921809.5764  -11731803.77247  -9137509.23744                  22921804.7594
     -1119.0284
  22164753.5714   -8080680.50247  -7482257.79746                  22164747.4204
      2165.5664
  23033996.4404   -7454496.20847  -5791728.65345                  23033990.5964
      1097.9544
 06  6 29 11 46 29.9990000  0  8G 7G15G 1G16G25G21G19G23
  21336311.8904  -18323967.90248 -14260303.82846                  21336307.2304
     -1824.2534
  21390250.6194  -18820489.88848 -14659750.37146                  21390246.6434
       329.9854
  22055878.5824  -17366748.89747 -13514545.66646                  22055875.3364
     -2326.0794
  21830939.4384  -12755334.26248 -12750177.72246                  21830934.4474
       696.6164
  20119103.0314  -27536328.13148 -21447040.97646                  20119098.2874
       161.9344
  22928238.9284  -11698018.71947  -9111183.21845                  22928233.6214
     -1133.1794
  22152426.4894   -8145459.42947  -7532734.87646                  22152420.0834
      2153.0324
  23027774.3624   -7487195.81547  -5817208.85045                  23027767.1624
      1082.0024
 06  6 29 11 46 59.9990000  0  8G 7G15G 1G16G25G21G19G23
  21346736.8374  -18269183.33647 -14217614.55946                  21346733.0374
     -1827.9884
  21388413.6374  -18830143.01548 -14667272.27746                  21388410.0354
       313.6334
  22069172.3844  -17296888.98547 -13460109.35746                  22069168.6194
     -2331.0994
  21826958.0074  -12776259.57847 -12766483.15546                  21826952.0114
       698.4964
  20118226.7704  -27540932.18148 -21450628.55146                  20118222.0204
       145.0544
  22934748.3814  -11663809.20347  -9084526.45145                  22934743.8134
     -1147.2854
  22140170.7474   -8209862.42347  -7582919.00246                  22140164.9044
      2140.5374
  23021643.9544   -7519411.80447  -5842312.23445                  23021636.5724
      1065.8114
 06  6 29 11 47 29.9990000  0  8G 7G15G 1G16G25G21G19G23
  21357183.4084  -18214286.29248 -14174837.63546                  21357178.9664
     -1831.7044
  21386670.2814  -18839303.84648 -14674410.58146                  21386666.4694
       297.2174
  22082496.0634  -17226874.04547 -13405552.28946                  22082492.4444
     -2336.3484
  21822966.2784  -12797235.27947 -12782827.86346                  21822961.3654
       700.1374
  20117447.8154  -27545026.52048 -21453818.94447                  20117443.2934
       128.0324
  22941339.3534  -11629171.80447  -9057536.26045                  22941335.1944
     -1161.5874
  22127987.8764   -8273884.94447  -7632806.67146                  22127982.2334
      2127.8614
  23015605.5054   -7551140.41047  -5867035.82344                  23015598.1254
      1049.6484
 06  6 29 11 47 59.9990000  0  8G 7G15G 1G16G25G21G19G23
  21367650.4304  -18159281.78948 -14131976.97046                  21367646.1304
     -1835.4254
  21385020.7404  -18847974.60148 -14681167.02846                  21385016.9114
       280.6304
  22095847.7344  -17156710.30847 -13350879.25046                  22095843.9214
     -2341.4944
  21818964.5934  -12818263.99947 -12799213.90246                  21818959.4004
       701.7044
  20116765.3444  -27548613.63648 -21456614.10147                  20116761.2304
       110.8844
  22948012.5984  -11594110.01547  -9030215.39545                  22948007.0994
     -1175.9674
  22115876.6444   -8337529.46147  -7682399.78946                  22115869.7074
      2114.9374
  23009660.1144   -7582384.85747  -5891382.14345                  23009653.2094
      1033.2524
 06  6 29 11 48 29.9990000  0  8G 7G15G 1G16G25G21G19G23
  21378139.3664  -18104164.10347 -14089028.13846                  21378134.9784
     -1838.7844
  21383465.5174  -18856146.39948 -14687534.65746                  21383461.4034
       264.4244
  22109228.9404  -17086392.85147 -13296086.41846                  22109225.2064
     -2346.0744
  21814954.4154  -12839337.34647 -12815634.69646                  21814948.5644
       703.4774
  20116180.8764  -27551684.85647 -21459007.27347                  20116177.4184
        94.1214
  22954765.9724  -11558617.16647  -9002558.64445                  22954761.1694
     -1189.9374
  22103838.5654   -8400787.63347  -7731691.87346                  22103832.2864
      2102.5444
  23003808.6124   -7613137.61147  -5915345.32845                  23003801.5434
      1017.3244
 06  6 29 11 48 59.9990000  0  8G 7G15G 1G16G25G21G19G23
  21388646.9324  -18048945.82648 -14046000.90846                  21388642.7714
     -1842.1684
  21382003.5804  -18863828.77148 -14693520.91646                  21381999.8844
       247.9594
  22122636.6634  -17015935.10647 -13241184.26946                  22122633.2254
     -2350.8454
  21810933.6944  -12860465.45848 -12832098.15946                  21810928.9434
       705.2644
  20115692.4604  -27554249.98448 -21461006.08347                  20115689.1334
        77.0704
  22961600.4754  -11522704.40147  -8974574.68245                  22961594.9854
     -1204.0584
  22091873.0614   -8463669.45847  -7780690.68146                  22091867.2144
      2089.8494
  22998047.5944   -7643409.16647  -5938933.53945                  22998041.0564
      1001.1234
 06  6 29 11 49 29.9990000  0  8G 7G15G 1G16G25G21G19G23
  21399173.7804  -17993626.24748 -14002894.74446                  21399169.4314
     -1845.2984
  21380635.4204  -18871018.04448 -14699122.95246                  21380632.0064
       231.7094
  22136070.9424  -16945337.49247 -13186173.13845                  22136066.8734
     -2355.1864
  21806903.4794  -12881645.35048 -12848601.98346                  21806897.9344
       707.2124
  20115301.5074  -27556305.44048 -21462607.74847                  20115296.5884
        60.3034
  22968514.0484  -11486369.64747  -8946261.87145                  22968509.1784
     -1217.8374
  22079978.7334   -8526172.01047  -7829393.97046                  22079973.3584
      2077.4564
  22992379.2174   -7673197.16747  -5962144.96145                  22992371.4434
       985.2494
 06  6 29 11 49 59.9990000  0  8G 7G15G 1G16G25G21G19G23
  21409719.3414  -17938211.08548 -13959714.10146                  21409714.5214
     -1848.7354
  21379361.0034  -18877717.13148 -14704343.01946                  21379356.4674
       215.1034
  22149530.4734  -16874606.74947 -13131058.26346                  22149526.5124
     -2359.8154
  21802862.8704  -12902879.88148 -12865148.36246                  21802857.5774
       708.8044
  20115006.6224  -27557854.50448 -21463814.79246                  20115001.1264
        43.2814
  22975508.2084  -11449617.26647  -8917623.66345                  22975502.9974
     -1231.9484
  22068156.5064   -8588298.53347  -7877804.23146                  22068150.4134
      2064.7174
  22986801.7414   -7702505.84547  -5984982.90845                  22986795.1764
       968.9654
 06  6 29 11 50 29.9990000  0  8G 7G15G 1G16G25G21G19G23
  21420281.9884  -17882702.38548 -13916460.58046                  21420277.7434
     -1851.8464
  21378179.7774  -18883924.86348 -14709180.20346                  21378175.2744
       198.7744
  22163014.4894  -16803745.66047 -13075841.82145                  22163011.0174
     -2364.2334
  21798811.6374  -12924168.28848 -12881736.72246                  21798806.6924
       710.5184
  20114808.4724  -27558896.06148 -21464626.37547                  20114804.2104
        26.2554
  22982581.6434  -11412447.81647  -8888660.45745                  22982576.5084
     -1245.8644
  22056406.3174   -8650048.69348  -7925921.23646                  22056399.9134
      2052.0514
  22981315.7374   -7731335.18047  -6007447.30545                  22981307.9794
       952.8964
 06  6 29 11 50 59.9990000  0  8G 7G15G 1G16G25G21G19G23
  21430862.9414  -17827098.99348 -13873133.25946                  21430858.5624
     -1855.0684
  21377092.7004  -18889637.49147 -14713631.59946                  21377088.5524
       182.1634
  22176523.8794  -16732754.29247 -13020523.89746                  22176520.0854
     -2368.5654
  21794750.7094  -12945507.40848 -12898364.62546                  21794745.8824
       712.1584
  20114707.6154  -27559426.56648 -21465039.75447                  20114703.4724
         9.0874
  22989734.8484  -11374859.15147  -8859370.56345                  22989728.9584
     -1259.9904
  22044727.2874   -8711419.00647  -7973742.24046                  22044721.3614
      2039.2774
  22975922.3824   -7759682.38047  -6029536.04845                  22975915.6814
       936.7824
 06  6 29 11 51 29.9990000  0  8G 7G15G 1G16G25G21G19G23
  21441463.0144  -17771396.53648 -13829728.75046                  21441458.6654
     -1858.2964
  21376101.2374  -18894847.60448 -14717691.41646                  21376096.9384
       165.3614
  22190058.8394  -16661629.18847 -12965101.72946                  22190055.5314
     -2372.9644
  21790681.9064  -12966890.13848 -12915026.46246                  21790677.4064
       713.5304
  20114704.7594  -27559438.93148 -21465049.38547                  20114700.9574
        -8.1934
  22996968.2464  -11336845.99047  -8829749.90745                  22996962.5044
     -1274.1944
  22033122.7794   -8772402.34748  -8021261.72246                  22033116.5514
      2026.4314
  22970620.1314   -7787541.42147  -6051244.36045                  22970613.7374
       920.5714
 06  6 29 11 51 59.9990000  0  8G 7G15G 1G16G25G21G19G23
  21452079.4864  -17715605.20548 -13786254.98246                  21452075.3074
     -1861.3624
  21375204.4064  -18899562.52748 -14721365.37146                  21375199.9124
       148.7454
  22203616.9114  -16590381.60447 -12909584.12146                  22203613.3644
     -2377.1344
  21786602.7424  -12988323.91148 -12931728.11346                  21786597.8454
       715.1324
  20114799.7174  -27558940.75748 -21464661.19747                  20114795.7144
       -25.3034
  23004280.9004  -11298416.97047  -8799805.22545                  23004275.1734
     -1288.0714
  22021590.0884   -8833007.22847  -8068486.29946                  22021584.0844
      2013.6284
  22965410.0584   -7814920.93947  -6072579.05745                  22965403.1394
       904.4344
 06  6 29 11 52 29.9990000  0  8G 7G15G 1G16G25G21G19G23
  21462713.1924  -17659727.21348 -13742713.68446                  21462708.1224
     -1863.8184
  21374401.0564  -18903781.78148 -14724653.09846                  21374396.8414
       132.4664
  22217197.2894  -16519014.88647 -12853973.68645                  22217193.8984
     -2380.7184
  21782514.8764  -13009808.69348 -12948469.51246                  21782509.4134
       717.1734
  20114992.0044  -27557931.85548 -21463875.02547                  20114987.6204
       -42.0174
  23011672.4004  -11259573.09347  -8769537.26345                  23011667.6264
     -1301.5534
  22010129.6534   -8893233.37847  -8115415.78046                  22010123.4184
      2001.3574
  22960291.3684   -7841821.65747  -6093540.64745                  22960284.3794
       888.8724
 06  6 29 11 52 59.9990000  0  8G 7G15G 1G16G25G21G19G23
  21473360.9374  -17603772.31948 -13699112.46747                  21473356.9424
     -1866.6014
  21373691.3454  -18907512.34548 -14727560.01946                  21373687.1684
       116.0644
  22230798.8024  -16447539.57747 -12798278.62946                  22230795.0554
     -2384.3464
  21778414.8664  -13031351.84148 -12965256.37846                  21778410.1954
       718.8924
  20115279.5374  -27556419.08948 -21462696.24147                  20115275.3514
       -58.9314
  23019141.2354  -11220323.07047  -8738952.83045                  23019136.3904
     -1315.2544
  21998739.3734   -8953088.00847  -8162055.72246                  21998734.3184
      1988.8184
  22955262.1934   -7868251.37947  -6114135.23245                  22955254.5824
       873.0964
 06  6 29 11 53 29.9990000  0  8G 7G15G 1G16G25G21G19G23
  21484024.3404  -17547731.94248 -13655444.64246                  21484020.6504
     -1869.2874
  21373076.6294  -18910742.86148 -14730077.29746                  21373072.0684
        99.4734
  22244422.1034  -16375948.17347 -12742493.13146                  22244418.1914
     -2388.1744
  21774307.0874  -13052942.09848 -12982079.97246                  21774301.6644
       720.5664
  20115665.6934  -27554391.61548 -21461116.40147                  20115661.6414
       -76.1134
  23026689.4134  -11180657.38647  -8708044.50545                  23026684.5534
     -1329.0634
  21987422.4634   -9012560.46047  -8208397.88846                  21987416.1174
      1976.1864
  22950323.7424   -7894200.21347  -6134355.09345                  22950316.3374
       856.9974
 06  6 29 11 53 59.9990000  0  8G 7G15G 1G16G25G21G19G23
  21494705.5024  -17491604.43348 -13611708.94047                  21494701.4674
     -1872.3974
  21372557.7714  -18913469.00648 -14732201.55546                  21372553.7464
        82.5294
  22258067.7194  -16304240.03947 -12686616.65546                  22258063.6754
     -2392.1094
  21770190.3394  -13074574.98148 -12998936.77946                  21770185.2424
       721.8264
  20116150.4124  -27551845.09648 -21459132.09947                  20116145.8254
       -93.4864
  23034317.7654  -11140573.05347  -8676809.94145                  23034311.6724
     -1342.9934
  21976178.4724   -9071646.69747  -8254439.10846                  21976173.0274
      1963.1014
  22945478.6014   -7919664.96247  -6154197.77645                  22945470.8154
       840.8304
 06  6 29 11 54 29.9990000  0  8G 7G15G 1G16G25G21G19G23
  21505401.5944  -17435396.67648 -13567910.70047                  21505397.6604
     -1874.8494
  21372133.8384  -18915694.61848 -14733935.80346                  21372129.7744
        65.9724
  22271733.8994  -16232422.75047 -12630655.15446                  22271729.9924
     -2395.5324
  21766064.4544  -13096254.66948 -13015830.00046                  21766059.4624
       723.5944
  20116732.5794  -27548783.90948 -21456746.76747                  20116728.2634
      -110.5224
  23042023.6314  -11100075.70247  -8645253.59845                  23042018.8704
     -1356.6364
  21965007.3964   -9130351.12547  -8300182.80146                  21965002.1784
      1950.6014
  22940723.2774   -7944650.92347  -6173667.34845                  22940716.9204
       825.0734
 06  6 29 11 54 59.9990000  0  8G 7G15G 1G16G25G21G19G23
  21516111.2084  -17379117.59448 -13524056.86747                  21516106.8884
     -1877.1584
  21371803.9434  -18917426.47448 -14735285.29446                  21371800.7644
        49.4344
  22285419.0794  -16160506.75447 -12574616.70046                  22285416.0074
     -2398.8094
  21761928.9244  -13117987.97848 -13032765.03646                  21761923.9894
       725.2594
  20117411.9594  -27545214.94548 -21453965.76047                  20117407.5594
      -127.4764
  23049807.0894  -11059173.41247  -8613381.68345                  23049803.1174
     -1370.1224
  21953907.8284   -9188681.16348  -8345634.77846                  21953902.0034
      1938.0864
  22936058.2924   -7969165.75747  -6192769.81345                  22936050.0244
       809.3414
 06  6 29 11 55 29.9990000  0  8G 7G15G 1G16G25G21G19G23
  21526835.9624  -17322757.45148 -13480139.88547                  21526832.0454
     -1880.3134
  21371571.0734  -18918651.86348 -14736240.15346                  21371567.0664
        32.1244
  22299125.0824  -16088483.04047 -12518494.31046                  22299121.5674
     -2402.8664
  21757785.5364  -13139762.29048 -13049732.02546                  21757779.9764
       726.2704
  20118190.1774  -27541125.66948 -21450779.30147                  20118185.3104
      -145.2394
  23057669.8844  -11017855.55547  -8581185.97845                  23057665.2784
     -1384.4534
  21942881.2334   -9246624.62447  -8390785.51746                  21942875.5784
      1924.6784
  22931485.2394   -7993198.17847  -6211496.39045                  22931478.4094
       792.7154
 06  6 29 11 55 59.9990000  0  8G 7G15G 1G16G25G21G19G23
  21537576.1484  -17266318.68648 -13436161.62946                  21537572.3824
     -1882.6464
  21371434.1824  -18919370.83448 -14736800.39146                  21371430.1834
        15.4984
  22312850.4334  -16016355.19647 -12462290.80345                  22312846.3144
     -2405.9864
  21753634.3554  -13161577.66948 -13066731.03946                  21753629.1984
       727.7644
  20119067.2884  -27536516.23348 -21447187.52147                  20119062.4624
      -162.3684
  23065611.0334  -10976123.73447  -8548667.69245                  23065607.5684
     -1398.0184
  21931928.1474   -9304181.69347  -8435635.17746                  21931922.7974
      1912.0854
  22927003.8274   -8016749.21647  -6229847.83445                  22926996.1104
       777.0124
 06  6 29 11 56 29.9990000  0  8G 7G15G 1G16G25G21G19G23
  21548330.4114  -17209803.64448 -13392123.94647                  21548326.3964
     -1884.8834
  21371393.6184  -18919583.12748 -14736965.80846                  21371389.9064
        -1.0944
  22326595.2884  -15944126.42248 -12406008.64645                  22326590.6264
     -2409.0924
  21749475.0654  -13183434.10348 -13083762.01146                  21749469.6094
       729.4784
  20120043.5564  -27531386.69048 -21443190.47047                  20120038.9274
      -179.3954
  23073631.0254  -10933979.06347  -8515827.67445                  23073625.1934
     -1411.4014
  21921049.2734   -9361352.82348  -8480184.10946                  21921042.9374
      1899.5314
  22922613.2154   -8039819.83747  -6247824.94245                  22922607.4294
       761.2114
 06  6 29 11 56 59.9990000  0  8G 7G15G 1G16G25G21G19G23
  21559098.3974  -17153218.17548 -13348031.37546                  21559094.1424
     -1887.1924
  21371449.2624  -18919292.09048 -14736739.03246                  21371445.7584
       -17.9354
  22340357.8174  -15871803.62148 -12349653.20745                  22340353.9414
     -2412.1534
  21745307.1354  -13205334.38948 -13100827.15146                  21745302.0714
       730.9084
  20121118.1384  -27525740.58448 -21438790.90947                  20121113.2744
      -196.6754
  23081728.0744  -10891426.56347  -8482669.86645                  23081723.5354
     -1425.1614
  21910242.9814   -9418141.60548  -8524435.10546                  21910237.4364
      1886.7674
  22918313.7384   -8062414.63047  -6265431.26745                  22918306.1724
       745.4794
 06  6 29 11 57 29.9990000  0  8G 7G15G 1G16G25G21G19G23
  21569878.5034  -17096566.17648 -13303886.95846                  21569874.7684
     -1889.5224
  21371600.2994  -18918499.35748 -14736121.32146                  21371596.5404
       -34.8194
  22354137.2654  -15799392.08047 -12293228.63345                  22354132.7904
     -2415.2644
  21741131.4034  -13227279.89248 -13117927.51846                  21741126.1314
       732.2314
  20122290.4444  -27519579.48048 -21433990.03647                  20122285.9684
      -214.0874
  23089902.6594  -10848469.29247  -8449196.65845                  23089896.5584
     -1438.7264
  21899508.5684   -9474550.04147  -8568389.71446                  21899502.4924
      1873.8824
  22914104.8644   -8084536.27247  -6282668.92645                  22914096.7164
       729.4924
 06  6 29 11 57 59.9990000  0  8G 7G15G 1G16G25G21G19G23
  21580672.1374  -17039846.58948 -13259689.89446                  21580668.4874
     -1891.7044
  21371847.5664  -18917201.18348 -14735109.74746                  21371843.4854
       -51.6504
  22367933.7954  -15726891.45947 -12236734.65845                  22367929.8494
     -2418.1064
  21736947.1744  -13249266.90848 -13135060.26646                  21736942.2054
       733.6434
  20123561.4444  -27512900.06348 -21428785.28647                  20123557.0174
      -231.2604
  23098154.8434  -10805105.00247  -8415406.30245                  23098150.3614
     -1452.2754
  21888847.4884   -9530574.66548  -8612045.25146                  21888841.2184
      1861.1674
  22909984.7984   -8106182.23247  -6299535.90145                  22909977.1844
       713.6334
 06  6 29 11 58 29.9990000  0  8G 7G15G 1G16G25G21G19G23
  21591477.9964  -16983060.87548 -13215441.27346                  21591474.3684
     -1893.7164
  21372191.2624  -18915396.43548 -14733703.43946                  21372186.9104
       -68.4674
  22381746.7734  -15654304.18247 -12180173.15445                  22381742.5034
     -2420.7914
  21732755.6414  -13271294.40948 -13152224.55846                  21732750.5064
       735.1274
  20124931.0284  -27505701.71848 -21423176.16647                  20124926.9104
      -248.3594
  23106483.1564  -10761334.44347  -8381299.35845                  23106479.2584
     -1465.7134
  21878259.1174   -9586215.36048  -8655401.60846                  21878253.8984
      1848.4864
  22905956.5484   -8127352.79347  -6316032.42845                  22905948.0434
       697.9354
 06  6 29 11 58 59.9990000  0  8G 7G15G 1G16G25G21G19G23
  21602294.9894  -16926216.01148 -13171146.57746                  21602291.0944
     -1895.9184
  21372630.0594  -18913089.83048 -14731906.07946                  21372625.3774
       -85.3764
  22395574.1664  -15581638.23447 -12123550.32045                  22395570.8054
     -2423.5404
  21728555.1444  -13293367.05648 -13169424.03746                  21728550.3804
       736.4264
  20126398.7954  -27497988.96948 -21417166.22947                  20126394.1564
      -265.7524
  23114889.4414  -10717163.60347  -8346880.54745                  23114885.4494
     -1479.1754
  21867743.3614   -9641476.69148  -8698462.39946                  21867737.2254
      1835.6404
  22902016.9854   -8148053.76847  -6332163.03145                  22902010.3404
       682.1584
